Wetterdaten: Freitag, 02.06.2023
Datum Zeit Temp. 2m Temp +5 cm Feuchte A. Luftdruck Regen Wind Richtung Richtung Sonnenschein UV Solar Taupunkt Windchill Windben
02.06.2023 00:00 11,3 C 11,1 C 84 % 1019,7 hPa 0,0 l/m 16,8 km/h (3 Bft) N-NW 343 0 min 0,0 UV-I 0 W/m 8,7 C 6,0 C 25,7 km/h (4 Bft)
02.06.2023 00:03 11,3 C 11,1 C 84 % 1019,8 hPa 0,0 l/m 19,0 km/h (3 Bft) N 360 0 min 0,0 UV-I 0 W/m 8,7 C 5,3 C 27,4 km/h (4 Bft)
02.06.2023 00:06 11,2 C 11,1 C 84 % 1019,7 hPa 0,0 l/m 14,6 km/h (3 Bft) N 350 0 min 0,0 UV-I 0 W/m 8,6 C 6,7 C 22,5 km/h (4 Bft)
02.06.2023 00:09 11,2 C 10,6 C 84 % 1019,8 hPa 0,0 l/m 17,1 km/h (3 Bft) N 350 0 min 0,0 UV-I 0 W/m 8,6 C 5,8 C 27,4 km/h (4 Bft)
02.06.2023 00:12 11,1 C 10,6 C 84 % 1019,8 hPa 0,0 l/m 12,0 km/h (2 Bft) N 9 0 min 0,0 UV-I 0 W/m 8,5 C 7,8 C 22,5 km/h (4 Bft)
02.06.2023 00:15 11,1 C 11,1 C 84 % 1019,8 hPa 0,0 l/m 11,0 km/h (2 Bft) N-NO 19 0 min 0,0 UV-I 0 W/m 8,5 C 8,3 C 20,9 km/h (4 Bft)
02.06.2023 00:18 11,1 C 11,1 C 84 % 1019,8 hPa 0,0 l/m 13,2 km/h (3 Bft) N 351 0 min 0,0 UV-I 0 W/m 8,5 C 7,2 C 22,5 km/h (4 Bft)
02.06.2023 00:21 11,1 C 11,1 C 85 % 1019,8 hPa 0,0 l/m 10,0 km/h (2 Bft) N 5 0 min 0,0 UV-I 0 W/m 8,7 C 8,8 C 16,1 km/h (3 Bft)
02.06.2023 00:24 11,0 C 11,1 C 85 % 1019,8 hPa 0,0 l/m 8,3 km/h (2 Bft) NO 34 0 min 0,0 UV-I 0 W/m 8,6 C 9,7 C 14,5 km/h (3 Bft)
02.06.2023 00:27 10,9 C 10,6 C 85 % 1019,8 hPa 0,0 l/m 12,5 km/h (3 Bft) N-NO 22 0 min 0,0 UV-I 0 W/m 8,5 C 7,3 C 20,9 km/h (4 Bft)
02.06.2023 00:30 10,9 C 10,6 C 84 % 1019,8 hPa 0,0 l/m 10,5 km/h (2 Bft) N-NO 24 0 min 0,0 UV-I 0 W/m 8,3 C 8,3 C 19,3 km/h (3 Bft)
02.06.2023 00:33 10,9 C 10,6 C 84 % 1019,8 hPa 0,0 l/m 9,5 km/h (2 Bft) N 11 0 min 0,0 UV-I 0 W/m 8,3 C 8,9 C 19,3 km/h (3 Bft)
02.06.2023 00:36 10,8 C 10,6 C 84 % 1019,8 hPa 0,0 l/m 13,0 km/h (3 Bft) N-NO 28 0 min 0,0 UV-I 0 W/m 8,2 C 7,0 C 20,9 km/h (4 Bft)
02.06.2023 00:39 10,8 C 10,6 C 85 % 1019,8 hPa 0,0 l/m 11,1 km/h (2 Bft) N-NO 26 0 min 0,0 UV-I 0 W/m 8,4 C 7,9 C 17,7 km/h (3 Bft)
02.06.2023 00:42 10,8 C 10,6 C 85 % 1019,8 hPa 0,0 l/m 15,3 km/h (3 Bft) N-NO 24 0 min 0,0 UV-I 0 W/m 8,4 C 6,0 C 22,5 km/h (4 Bft)
02.06.2023 00:45 10,7 C 10,6 C 85 % 1019,8 hPa 0,0 l/m 12,3 km/h (3 Bft) N-NO 23 0 min 0,0 UV-I 0 W/m 8,3 C 7,2 C 20,9 km/h (4 Bft)
02.06.2023 00:48 10,7 C 10,6 C 85 % 1019,8 hPa 0,0 l/m 13,7 km/h (3 Bft) N-NO 19 0 min 0,0 UV-I 0 W/m 8,3 C 6,5 C 22,5 km/h (4 Bft)
02.06.2023 00:51 10,6 C 10,6 C 85 % 1019,8 hPa 0,0 l/m 14,7 km/h (3 Bft) N-NO 19 0 min 0,0 UV-I 0 W/m 8,2 C 6,0 C 20,9 km/h (4 Bft)
02.06.2023 00:54 10,6 C 10,6 C 85 % 1019,7 hPa 0,0 l/m 10,1 km/h (2 Bft) N-NO 17 0 min 0,0 UV-I 0 W/m 8,2 C 8,2 C 16,1 km/h (3 Bft)
02.06.2023 00:57 10,6 C 10,6 C 85 % 1019,8 hPa 0,0 l/m 11,6 km/h (2 Bft) N 5 0 min 0,0 UV-I 0 W/m 8,2 C 7,4 C 24,1 km/h (4 Bft)
02.06.2023 01:00 10,6 C 10,6 C 85 % 1019,8 hPa 0,0 l/m 12,8 km/h (3 Bft) N 5 0 min 0,0 UV-I 0 W/m 8,2 C 6,8 C 20,9 km/h (4 Bft)
02.06.2023 01:03 10,6 C 10,6 C 85 % 1019,8 hPa 0,0 l/m 11,0 km/h (2 Bft) N-NO 14 0 min 0,0 UV-I 0 W/m 8,2 C 7,7 C 17,7 km/h (3 Bft)
02.06.2023 01:06 10,6 C 10,6 C 85 % 1019,8 hPa 0,0 l/m 15,1 km/h (3 Bft) N-NO 15 0 min 0,0 UV-I 0 W/m 8,2 C 5,8 C 25,7 km/h (4 Bft)
02.06.2023 01:09 10,5 C 10,6 C 85 % 1019,9 hPa 0,0 l/m 13,8 km/h (3 Bft) N-NW 348 0 min 0,0 UV-I 0 W/m 8,1 C 6,3 C 22,5 km/h (4 Bft)
02.06.2023 01:12 10,4 C 10,6 C 84 % 1019,9 hPa 0,0 l/m 17,9 km/h (3 Bft) N 360 0 min 0,0 UV-I 0 W/m 7,8 C 4,5 C 27,4 km/h (4 Bft)
02.06.2023 01:15 10,4 C 10,6 C 84 % 1019,9 hPa 0,0 l/m 15,6 km/h (3 Bft) N-NO 15 0 min 0,0 UV-I 0 W/m 7,8 C 5,4 C 24,1 km/h (4 Bft)
02.06.2023 01:18 10,4 C 10,6 C 84 % 1019,8 hPa 0,0 l/m 11,4 km/h (2 Bft) N-NO 26 0 min 0,0 UV-I 0 W/m 7,8 C 7,3 C 20,9 km/h (4 Bft)
02.06.2023 01:21 10,4 C 10,0 C 84 % 1019,8 hPa 0,0 l/m 16,2 km/h (3 Bft) N 5 0 min 0,0 UV-I 0 W/m 7,8 C 5,1 C 25,7 km/h (4 Bft)
02.06.2023 01:24 10,3 C 10,0 C 84 % 1019,8 hPa 0,0 l/m 17,5 km/h (3 Bft) N-NW 339 0 min 0,0 UV-I 0 W/m 7,7 C 4,5 C 22,5 km/h (4 Bft)
02.06.2023 01:27 10,3 C 10,0 C 84 % 1019,8 hPa 0,0 l/m 14,3 km/h (3 Bft) N-NO 22 0 min 0,0 UV-I 0 W/m 7,7 C 5,8 C 20,9 km/h (4 Bft)
02.06.2023 01:30 10,3 C 10,0 C 84 % 1019,8 hPa 0,0 l/m 16,4 km/h (3 Bft) N 11 0 min 0,0 UV-I 0 W/m 7,7 C 4,9 C 24,1 km/h (4 Bft)
02.06.2023 01:33 10,3 C 10,0 C 84 % 1019,7 hPa 0,0 l/m 12,1 km/h (2 Bft) N 11 0 min 0,0 UV-I 0 W/m 7,7 C 6,8 C 20,9 km/h (4 Bft)
02.06.2023 01:36 10,3 C 10,0 C 85 % 1019,8 hPa 0,0 l/m 9,6 km/h (2 Bft) N-NO 15 0 min 0,0 UV-I 0 W/m 7,9 C 8,2 C 16,1 km/h (3 Bft)
02.06.2023 01:39 10,3 C 10,0 C 84 % 1019,8 hPa 0,0 l/m 9,3 km/h (2 Bft) NO 34 0 min 0,0 UV-I 0 W/m 7,7 C 8,3 C 16,1 km/h (3 Bft)
02.06.2023 01:42 10,3 C 10,0 C 84 % 1019,8 hPa 0,0 l/m 14,8 km/h (3 Bft) N-NO 14 0 min 0,0 UV-I 0 W/m 7,7 C 5,6 C 22,5 km/h (4 Bft)
02.06.2023 01:45 10,2 C 10,0 C 84 % 1019,8 hPa 0,0 l/m 14,3 km/h (3 Bft) N 5 0 min 0,0 UV-I 0 W/m 7,6 C 5,7 C 24,1 km/h (4 Bft)
02.06.2023 01:48 10,2 C 10,0 C 84 % 1019,7 hPa 0,0 l/m 12,7 km/h (3 Bft) N 355 0 min 0,0 UV-I 0 W/m 7,6 C 6,4 C 19,3 km/h (3 Bft)
02.06.2023 01:51 10,2 C 10,0 C 84 % 1019,8 hPa 0,0 l/m 13,1 km/h (3 Bft) N-NW 342 0 min 0,0 UV-I 0 W/m 7,6 C 6,2 C 25,7 km/h (4 Bft)
02.06.2023 01:54 10,1 C 10,0 C 84 % 1019,7 hPa 0,0 l/m 13,8 km/h (3 Bft) N 5 0 min 0,0 UV-I 0 W/m 7,5 C 5,8 C 19,3 km/h (3 Bft)
02.06.2023 01:57 10,1 C 10,0 C 84 % 1019,9 hPa 0,0 l/m 16,2 km/h (3 Bft) NO 46 0 min 0,0 UV-I 0 W/m 7,5 C 4,8 C 24,1 km/h (4 Bft)
02.06.2023 02:00 10,0 C 10,0 C 85 % 1019,8 hPa 0,0 l/m 13,0 km/h (3 Bft) N 355 0 min 0,0 UV-I 0 W/m 7,6 C 6,0 C 29,0 km/h (5 Bft)
02.06.2023 02:03 9,9 C 10,0 C 85 % 1019,8 hPa 0,0 l/m 18,4 km/h (3 Bft) N 355 0 min 0,0 UV-I 0 W/m 7,5 C 3,7 C 29,0 km/h (5 Bft)
02.06.2023 02:06 9,9 C 10,0 C 85 % 1019,8 hPa 0,0 l/m 14,4 km/h (3 Bft) NO 34 0 min 0,0 UV-I 0 W/m 7,5 C 5,3 C 22,5 km/h (4 Bft)
02.06.2023 02:09 9,9 C 10,0 C 85 % 1019,8 hPa 0,0 l/m 19,0 km/h (3 Bft) N 355 0 min 0,0 UV-I 0 W/m 7,5 C 3,5 C 25,7 km/h (4 Bft)
02.06.2023 02:12 9,8 C 9,4 C 85 % 1019,7 hPa 0,0 l/m 15,2 km/h (3 Bft) N-NW 340 0 min 0,0 UV-I 0 W/m 7,4 C 4,8 C 20,9 km/h (4 Bft)
02.06.2023 02:15 9,8 C 9,4 C 85 % 1019,7 hPa 0,0 l/m 14,8 km/h (3 Bft) N 355 0 min 0,0 UV-I 0 W/m 7,4 C 5,0 C 27,4 km/h (4 Bft)
02.06.2023 02:18 9,8 C 9,4 C 85 % 1019,8 hPa 0,0 l/m 10,7 km/h (2 Bft) N-NW 346 0 min 0,0 UV-I 0 W/m 7,4 C 7,0 C 17,7 km/h (3 Bft)
02.06.2023 02:21 9,8 C 9,4 C 85 % 1019,7 hPa 0,0 l/m 12,0 km/h (2 Bft) N 5 0 min 0,0 UV-I 0 W/m 7,4 C 6,3 C 19,3 km/h (3 Bft)
02.06.2023 02:24 9,7 C 9,4 C 85 % 1019,7 hPa 0,0 l/m 7,5 km/h (2 Bft) N 10 0 min 0,0 UV-I 0 W/m 7,3 C 8,9 C 14,5 km/h (3 Bft)
02.06.2023 02:27 9,7 C 9,4 C 86 % 1019,8 hPa 0,0 l/m 7,6 km/h (2 Bft) N 5 0 min 0,0 UV-I 0 W/m 7,5 C 8,8 C 17,7 km/h (3 Bft)
02.06.2023 02:30 9,7 C 9,4 C 85 % 1019,7 hPa 0,0 l/m 12,2 km/h (2 Bft) N 11 0 min 0,0 UV-I 0 W/m 7,3 C 6,1 C 17,7 km/h (3 Bft)
02.06.2023 02:33 9,6 C 9,4 C 85 % 1019,7 hPa 0,0 l/m 10,7 km/h (2 Bft) N-NW 327 0 min 0,0 UV-I 0 W/m 7,2 C 6,8 C 17,7 km/h (3 Bft)
02.06.2023 02:36 9,5 C 9,4 C 85 % 1019,7 hPa 0,0 l/m 14,7 km/h (3 Bft) N 350 0 min 0,0 UV-I 0 W/m 7,1 C 4,7 C 22,5 km/h (4 Bft)
02.06.2023 02:39 9,4 C 9,4 C 85 % 1019,7 hPa 0,0 l/m 15,8 km/h (3 Bft) N-NO 16 0 min 0,0 UV-I 0 W/m 7,0 C 4,1 C 20,9 km/h (4 Bft)
02.06.2023 02:42 9,3 C 9,4 C 86 % 1019,8 hPa 0,0 l/m 13,3 km/h (3 Bft) N-NW 347 0 min 0,0 UV-I 0 W/m 7,1 C 5,1 C 24,1 km/h (4 Bft)
02.06.2023 02:45 9,3 C 9,4 C 86 % 1019,8 hPa 0,0 l/m 14,2 km/h (3 Bft) N 360 0 min 0,0 UV-I 0 W/m 7,1 C 4,6 C 22,5 km/h (4 Bft)
02.06.2023 02:48 9,2 C 9,4 C 86 % 1019,8 hPa 0,0 l/m 10,3 km/h (2 Bft) N 351 0 min 0,0 UV-I 0 W/m 7,0 C 6,5 C 17,7 km/h (3 Bft)
02.06.2023 02:51 9,1 C 9,4 C 86 % 1019,7 hPa 0,0 l/m 14,2 km/h (3 Bft) N 350 0 min 0,0 UV-I 0 W/m 6,9 C 4,4 C 20,9 km/h (4 Bft)
02.06.2023 02:54 9,1 C 8,9 C 86 % 1019,8 hPa 0,0 l/m 12,9 km/h (3 Bft) N 360 0 min 0,0 UV-I 0 W/m 6,9 C 5,0 C 19,3 km/h (3 Bft)
02.06.2023 02:57 9,0 C 8,9 C 86 % 1019,8 hPa 0,0 l/m 13,1 km/h (3 Bft) N-NO 13 0 min 0,0 UV-I 0 W/m 6,8 C 4,8 C 20,9 km/h (4 Bft)
02.06.2023 03:00 8,9 C 8,9 C 86 % 1019,7 hPa 0,0 l/m 15,5 km/h (3 Bft) N 360 0 min 0,0 UV-I 0 W/m 6,7 C 3,6 C 20,9 km/h (4 Bft)
02.06.2023 03:03 8,9 C 8,9 C 86 % 1019,8 hPa 0,0 l/m 15,2 km/h (3 Bft) N-NW 343 0 min 0,0 UV-I 0 W/m 6,7 C 3,7 C 22,5 km/h (4 Bft)
02.06.2023 03:06 8,9 C 8,9 C 87 % 1019,7 hPa 0,0 l/m 12,5 km/h (3 Bft) N-NO 14 0 min 0,0 UV-I 0 W/m 6,9 C 5,0 C 19,3 km/h (3 Bft)
02.06.2023 03:09 8,8 C 8,9 C 87 % 1019,8 hPa 0,0 l/m 11,3 km/h (2 Bft) N-NW 334 0 min 0,0 UV-I 0 W/m 6,8 C 5,5 C 19,3 km/h (3 Bft)
02.06.2023 03:12 8,8 C 8,9 C 87 % 1019,7 hPa 0,0 l/m 11,9 km/h (2 Bft) N 355 0 min 0,0 UV-I 0 W/m 6,8 C 5,2 C 19,3 km/h (3 Bft)
02.06.2023 03:15 8,8 C 8,9 C 87 % 1019,7 hPa 0,0 l/m 13,4 km/h (3 Bft) N-NO 23 0 min 0,0 UV-I 0 W/m 6,8 C 4,4 C 19,3 km/h (3 Bft)
02.06.2023 03:18 8,8 C 8,9 C 87 % 1019,7 hPa 0,0 l/m 11,6 km/h (2 Bft) N 5 0 min 0,0 UV-I 0 W/m 6,8 C 5,3 C 19,3 km/h (3 Bft)
02.06.2023 03:21 8,7 C 8,9 C 87 % 1019,8 hPa 0,0 l/m 16,1 km/h (3 Bft) N 350 0 min 0,0 UV-I 0 W/m 6,7 C 3,1 C 20,9 km/h (4 Bft)
02.06.2023 03:24 8,7 C 8,9 C 87 % 1019,8 hPa 0,0 l/m 8,6 km/h (2 Bft) N 11 0 min 0,0 UV-I 0 W/m 6,7 C 7,1 C 16,1 km/h (3 Bft)
02.06.2023 03:27 8,7 C 8,9 C 87 % 1019,8 hPa 0,0 l/m 10,2 km/h (2 Bft) N 5 0 min 0,0 UV-I 0 W/m 6,7 C 6,0 C 17,7 km/h (3 Bft)
02.06.2023 03:30 8,7 C 8,9 C 87 % 1019,7 hPa 0,0 l/m 11,7 km/h (2 Bft) N 10 0 min 0,0 UV-I 0 W/m 6,7 C 5,2 C 22,5 km/h (4 Bft)
02.06.2023 03:33 8,6 C 8,9 C 87 % 1019,8 hPa 0,0 l/m 10,4 km/h (2 Bft) N 9 0 min 0,0 UV-I 0 W/m 6,6 C 5,8 C 19,3 km/h (3 Bft)
02.06.2023 03:36 8,6 C 8,9 C 87 % 1019,8 hPa 0,0 l/m 12,4 km/h (3 Bft) N 349 0 min 0,0 UV-I 0 W/m 6,6 C 4,7 C 20,9 km/h (4 Bft)
02.06.2023 03:39 8,6 C 8,9 C 87 % 1019,7 hPa 0,0 l/m 16,8 km/h (3 Bft) W 281 0 min 0,0 UV-I 0 W/m 6,6 C 2,7 C 22,5 km/h (4 Bft)
02.06.2023 03:42 8,5 C 8,9 C 87 % 1019,7 hPa 0,0 l/m 14,4 km/h (3 Bft) N 351 0 min 0,0 UV-I 0 W/m 6,5 C 3,6 C 24,1 km/h (4 Bft)
02.06.2023 03:45 8,5 C 8,9 C 88 % 1019,7 hPa 0,0 l/m 10,8 km/h (2 Bft) N-NO 13 0 min 0,0 UV-I 0 W/m 6,6 C 5,5 C 16,1 km/h (3 Bft)
02.06.2023 03:48 8,6 C 8,3 C 88 % 1019,7 hPa 0,0 l/m 6,5 km/h (2 Bft) N-NO 15 0 min 0,0 UV-I 0 W/m 6,7 C 8,5 C 12,9 km/h (3 Bft)
02.06.2023 03:51 8,5 C 8,3 C 88 % 1019,6 hPa 0,0 l/m 10,7 km/h (2 Bft) N 360 0 min 0,0 UV-I 0 W/m 6,6 C 5,5 C 19,3 km/h (3 Bft)
02.06.2023 03:54 8,5 C 8,9 C 88 % 1019,6 hPa 0,0 l/m 8,2 km/h (2 Bft) N-NO 24 0 min 0,0 UV-I 0 W/m 6,6 C 7,1 C 12,9 km/h (3 Bft)
02.06.2023 03:57 8,4 C 8,9 C 88 % 1019,6 hPa 0,0 l/m 12,1 km/h (2 Bft) N 360 0 min 0,0 UV-I 0 W/m 6,5 C 4,6 C 19,3 km/h (3 Bft)
02.06.2023 04:00 8,4 C 8,3 C 88 % 1019,7 hPa 0,0 l/m 9,8 km/h (2 Bft) N 11 0 min 0,0 UV-I 0 W/m 6,5 C 6,0 C 19,3 km/h (3 Bft)
02.06.2023 04:03 8,4 C 8,3 C 87 % 1019,6 hPa 0,0 l/m 12,5 km/h (3 Bft) N-NO 26 0 min 0,0 UV-I 0 W/m 6,4 C 4,4 C 19,3 km/h (3 Bft)
02.06.2023 04:06 8,4 C 8,3 C 87 % 1019,7 hPa 0,0 l/m 8,9 km/h (2 Bft) N 355 0 min 0,0 UV-I 0 W/m 6,4 C 6,5 C 16,1 km/h (3 Bft)
02.06.2023 04:09 8,4 C 8,3 C 88 % 1019,7 hPa 0,0 l/m 10,4 km/h (2 Bft) NO 34 0 min 0,0 UV-I 0 W/m 6,5 C 5,6 C 16,1 km/h (3 Bft)
02.06.2023 04:12 8,4 C 8,3 C 87 % 1019,7 hPa 0,0 l/m 11,7 km/h (2 Bft) N-NO 21 0 min 0,0 UV-I 0 W/m 6,4 C 4,8 C 17,7 km/h (3 Bft)
02.06.2023 04:15 8,4 C 8,3 C 87 % 1019,7 hPa 0,0 l/m 9,2 km/h (2 Bft) N-NW 338 0 min 0,0 UV-I 0 W/m 6,4 C 6,3 C 16,1 km/h (3 Bft)
02.06.2023 04:18 8,4 C 8,3 C 87 % 1019,7 hPa 0,0 l/m 8,6 km/h (2 Bft) N-NW 348 0 min 0,0 UV-I 0 W/m 6,4 C 6,7 C 14,5 km/h (3 Bft)
02.06.2023 04:21 8,3 C 8,3 C 87 % 1019,7 hPa 0,0 l/m 13,4 km/h (3 Bft) N-NW 346 0 min 0,0 UV-I 0 W/m 6,3 C 3,8 C 20,9 km/h (4 Bft)
02.06.2023 04:24 8,3 C 8,3 C 87 % 1019,6 hPa 0,0 l/m 10,2 km/h (2 Bft) N 350 0 min 0,0 UV-I 0 W/m 6,3 C 5,6 C 16,1 km/h (3 Bft)
02.06.2023 04:27 8,3 C 8,3 C 87 % 1019,6 hPa 0,0 l/m 10,2 km/h (2 Bft) N-NO 23 0 min 0,0 UV-I 0 W/m 6,3 C 5,6 C 17,7 km/h (3 Bft)
02.06.2023 04:30 8,3 C 8,3 C 87 % 1019,6 hPa 0,0 l/m 9,3 km/h (2 Bft) N-NW 345 0 min 0,0 UV-I 0 W/m 6,3 C 6,2 C 17,7 km/h (3 Bft)
02.06.2023 04:33 8,3 C 8,3 C 87 % 1019,7 hPa 0,0 l/m 11,4 km/h (2 Bft) NO 51 0 min 0,0 UV-I 0 W/m 6,3 C 4,9 C 19,3 km/h (3 Bft)
02.06.2023 04:36 8,3 C 8,3 C 87 % 1019,7 hPa 0,0 l/m 8,5 km/h (2 Bft) N-NO 26 0 min 0,0 UV-I 0 W/m 6,3 C 6,7 C 22,5 km/h (4 Bft)
02.06.2023 04:39 8,3 C 8,3 C 87 % 1019,8 hPa 0,0 l/m 11,2 km/h (2 Bft) N-NO 19 0 min 0,0 UV-I 0 W/m 6,3 C 5,0 C 17,7 km/h (3 Bft)
02.06.2023 04:42 8,3 C 8,3 C 87 % 1019,7 hPa 0,0 l/m 10,4 km/h (2 Bft) N 9 0 min 0,0 UV-I 0 W/m 6,3 C 5,5 C 16,1 km/h (3 Bft)
02.06.2023 04:45 8,3 C 8,3 C 87 % 1019,7 hPa 0,0 l/m 12,4 km/h (3 Bft) N-NO 17 0 min 0,0 UV-I 0 W/m 6,3 C 4,3 C 17,7 km/h (3 Bft)
02.06.2023 04:48 8,3 C 8,3 C 86 % 1019,7 hPa 0,0 l/m 9,2 km/h (2 Bft) N 5 0 min 0,0 UV-I 0 W/m 6,1 C 6,2 C 14,5 km/h (3 Bft)
02.06.2023 04:51 8,3 C 8,3 C 87 % 1019,8 hPa 0,0 l/m 4,4 km/h (1 Bft) N 5 0 min 0,0 UV-I 0 W/m 6,3 C 8,3 C 8,0 km/h (2 Bft)
02.06.2023 04:54 8,3 C 8,3 C 87 % 1019,6 hPa 0,0 l/m 12,0 km/h (2 Bft) N-NO 13 0 min 0,0 UV-I 0 W/m 6,3 C 4,6 C 20,9 km/h (4 Bft)
02.06.2023 04:57 8,2 C 8,3 C 86 % 1019,7 hPa 0,0 l/m 12,0 km/h (2 Bft) N 360 0 min 0,0 UV-I 0 W/m 6,0 C 4,4 C 20,9 km/h (4 Bft)
02.06.2023 05:00 8,2 C 8,3 C 86 % 1019,7 hPa 0,0 l/m 11,8 km/h (2 Bft) N-NW 333 0 min 0,0 UV-I 0 W/m 6,0 C 4,6 C 20,9 km/h (4 Bft)
02.06.2023 05:03 8,1 C 8,3 C 86 % 1019,6 hPa 0,0 l/m 19,2 km/h (3 Bft) N-NW 344 0 min 0,0 UV-I 0 W/m 5,9 C 1,1 C 27,4 km/h (4 Bft)
02.06.2023 05:06 8,1 C 8,3 C 86 % 1019,7 hPa 0,0 l/m 14,1 km/h (3 Bft) N 5 0 min 0,0 UV-I 0 W/m 5,9 C 3,3 C 22,5 km/h (4 Bft)
02.06.2023 05:09 8,1 C 8,3 C 86 % 1019,7 hPa 0,0 l/m 13,3 km/h (3 Bft) N-NO 17 0 min 0,0 UV-I 0 W/m 5,9 C 3,6 C 17,7 km/h (3 Bft)
02.06.2023 05:12 8,1 C 8,3 C 86 % 1019,7 hPa 0,0 l/m 12,5 km/h (3 Bft) N 355 0 min 0,0 UV-I 0 W/m 5,9 C 4,1 C 22,5 km/h (4 Bft)
02.06.2023 05:15 8,1 C 8,3 C 86 % 1019,6 hPa 0,0 l/m 11,2 km/h (2 Bft) N 9 0 min 0,0 UV-I 0 W/m 5,9 C 4,8 C 20,9 km/h (4 Bft)
02.06.2023 05:18 8,1 C 8,3 C 86 % 1019,8 hPa 0,0 l/m 14,5 km/h (3 Bft) N-NO 14 0 min 0,0 UV-I 0 W/m 5,9 C 3,1 C 22,5 km/h (4 Bft)
02.06.2023 05:21 8,1 C 8,3 C 86 % 1019,7 hPa 0,0 l/m 14,1 km/h (3 Bft) N 9 0 min 0,0 UV-I 0 W/m 5,9 C 3,3 C 25,7 km/h (4 Bft)
02.06.2023 05:24 8,1 C 8,3 C 86 % 1019,7 hPa 0,0 l/m 15,0 km/h (3 Bft) W-NW 296 0 min 0,0 UV-I 0 W/m 5,9 C 2,8 C 22,5 km/h (4 Bft)
02.06.2023 05:27 8,0 C 8,3 C 86 % 1019,8 hPa 0,0 l/m 13,9 km/h (3 Bft) N-NW 344 0 min 0,0 UV-I 0 W/m 5,8 C 3,2 C 20,9 km/h (4 Bft)
02.06.2023 05:30 8,1 C 7,8 C 86 % 1019,8 hPa 0,0 l/m 12,4 km/h (3 Bft) N-NW 343 0 min 0,0 UV-I 0 W/m 5,9 C 4,1 C 19,3 km/h (3 Bft)
02.06.2023 05:33 8,0 C 7,8 C 86 % 1019,8 hPa 0,0 l/m 8,0 km/h (2 Bft) N 5 0 min 0,0 UV-I 0 W/m 5,8 C 6,8 C 19,3 km/h (3 Bft)
02.06.2023 05:36 7,9 C 8,3 C 85 % 1019,8 hPa 0,0 l/m 12,2 km/h (2 Bft) N-NW 336 0 min 0,0 UV-I 0 W/m 5,5 C 4,0 C 17,7 km/h (3 Bft)
02.06.2023 05:39 7,9 C 7,8 C 85 % 1019,8 hPa 0,0 l/m 14,7 km/h (3 Bft) N 355 0 min 0,0 UV-I 0 W/m 5,5 C 2,7 C 22,5 km/h (4 Bft)
02.06.2023 05:42 7,8 C 7,8 C 85 % 1019,9 hPa 0,0 l/m 16,8 km/h (3 Bft) N 355 0 min 0,0 UV-I 0 W/m 5,4 C 1,7 C 25,7 km/h (4 Bft)
02.06.2023 05:45 7,8 C 7,8 C 85 % 1019,7 hPa 0,0 l/m 13,2 km/h (3 Bft) N-NO 18 0 min 0,0 UV-I 0 W/m 5,4 C 3,3 C 20,9 km/h (4 Bft)
02.06.2023 05:48 7,8 C 7,8 C 85 % 1019,8 hPa 0,0 l/m 14,9 km/h (3 Bft) N-NW 347 0 min 0,0 UV-I 0 W/m 5,4 C 2,5 C 20,9 km/h (4 Bft)
02.06.2023 05:51 7,8 C 7,8 C 85 % 1019,7 hPa 0,0 l/m 18,4 km/h (3 Bft) N 360 0 min 0,0 UV-I 4 W/m 5,4 C 1,0 C 24,1 km/h (4 Bft)
02.06.2023 05:54 7,8 C 7,8 C 85 % 1019,8 hPa 0,0 l/m 16,6 km/h (3 Bft) N 355 0 min 0,0 UV-I 5 W/m 5,4 C 1,8 C 25,7 km/h (4 Bft)
02.06.2023 05:57 7,8 C 7,8 C 85 % 1019,8 hPa 0,0 l/m 15,2 km/h (3 Bft) N-NO 24 0 min 0,0 UV-I 5 W/m 5,4 C 2,4 C 22,5 km/h (4 Bft)
02.06.2023 06:00 7,8 C 7,8 C 85 % 1019,8 hPa 0,0 l/m 11,5 km/h (2 Bft) N 5 0 min 0,0 UV-I 7 W/m 5,4 C 4,3 C 19,3 km/h (3 Bft)
02.06.2023 06:03 7,8 C 7,8 C 85 % 1019,7 hPa 0,0 l/m 12,1 km/h (2 Bft) N-NW 347 0 min 0,0 UV-I 7 W/m 5,4 C 3,9 C 17,7 km/h (3 Bft)
02.06.2023 06:06 7,8 C 7,8 C 85 % 1019,7 hPa 0,0 l/m 13,8 km/h (3 Bft) N-NO 23 0 min 0,0 UV-I 9 W/m 5,4 C 3,0 C 19,3 km/h (3 Bft)
02.06.2023 06:09 7,8 C 7,8 C 85 % 1019,8 hPa 0,0 l/m 17,7 km/h (3 Bft) N-NW 331 0 min 0,0 UV-I 9 W/m 5,4 C 1,3 C 24,1 km/h (4 Bft)
02.06.2023 06:12 7,8 C 7,8 C 85 % 1019,9 hPa 0,0 l/m 13,1 km/h (3 Bft) N 5 0 min 0,0 UV-I 11 W/m 5,4 C 3,4 C 24,1 km/h (4 Bft)
02.06.2023 06:15 7,7 C 7,8 C 85 % 1019,8 hPa 0,0 l/m 12,6 km/h (3 Bft) N 5 0 min 0,0 UV-I 11 W/m 5,3 C 3,5 C 20,9 km/h (4 Bft)
02.06.2023 06:18 7,7 C 7,8 C 85 % 1019,9 hPa 0,0 l/m 14,5 km/h (3 Bft) N 5 0 min 0,0 UV-I 12 W/m 5,3 C 2,6 C 22,5 km/h (4 Bft)
02.06.2023 06:21 7,7 C 7,8 C 85 % 1019,8 hPa 0,0 l/m 13,8 km/h (3 Bft) N-NO 19 0 min 0,0 UV-I 14 W/m 5,3 C 2,9 C 20,9 km/h (4 Bft)
02.06.2023 06:24 7,7 C 7,8 C 85 % 1019,8 hPa 0,0 l/m 13,4 km/h (3 Bft) N-NO 15 0 min 0,0 UV-I 16 W/m 5,3 C 3,1 C 20,9 km/h (4 Bft)
02.06.2023 06:27 7,8 C 7,8 C 85 % 1019,9 hPa 0,0 l/m 10,0 km/h (2 Bft) N-NO 12 0 min 0,0 UV-I 16 W/m 5,4 C 5,2 C 17,7 km/h (3 Bft)
02.06.2023 06:30 7,8 C 7,8 C 85 % 1019,9 hPa 0,0 l/m 11,5 km/h (2 Bft) N 355 0 min 0,0 UV-I 18 W/m 5,4 C 4,3 C 20,9 km/h (4 Bft)
02.06.2023 06:33 7,8 C 7,8 C 85 % 1019,8 hPa 0,0 l/m 12,3 km/h (3 Bft) N 11 0 min 0,0 UV-I 18 W/m 5,4 C 3,8 C 20,9 km/h (4 Bft)
02.06.2023 06:36 7,8 C 8,3 C 85 % 1019,8 hPa 0,0 l/m 11,6 km/h (2 Bft) N 5 0 min 0,0 UV-I 18 W/m 5,4 C 4,2 C 19,3 km/h (3 Bft)
02.06.2023 06:39 7,7 C 8,3 C 85 % 1019,9 hPa 0,0 l/m 10,2 km/h (2 Bft) N-NO 24 0 min 0,0 UV-I 18 W/m 5,3 C 4,9 C 17,7 km/h (3 Bft)
02.06.2023 06:42 7,7 C 8,3 C 86 % 1020,0 hPa 0,0 l/m 12,3 km/h (3 Bft) N-NO 22 0 min 0,0 UV-I 19 W/m 5,5 C 3,7 C 17,7 km/h (3 Bft)
02.06.2023 06:45 7,8 C 8,3 C 86 % 1020,0 hPa 0,0 l/m 11,7 km/h (2 Bft) N-NO 13 0 min 0,0 UV-I 20 W/m 5,6 C 4,1 C 20,9 km/h (4 Bft)
02.06.2023 06:48 7,7 C 8,3 C 86 % 1019,9 hPa 0,0 l/m 12,1 km/h (2 Bft) N-NO 12 0 min 0,0 UV-I 22 W/m 5,5 C 3,8 C 16,1 km/h (3 Bft)
02.06.2023 06:51 7,7 C 8,3 C 86 % 1019,9 hPa 0,0 l/m 10,6 km/h (2 Bft) N-NO 20 0 min 0,0 UV-I 25 W/m 5,5 C 4,7 C 16,1 km/h (3 Bft)
02.06.2023 06:54 7,7 C 8,3 C 86 % 1019,9 hPa 0,0 l/m 11,5 km/h (2 Bft) N-NO 23 0 min 0,0 UV-I 28 W/m 5,5 C 4,1 C 19,3 km/h (3 Bft)
02.06.2023 06:57 7,7 C 8,3 C 86 % 1019,9 hPa 0,0 l/m 10,3 km/h (2 Bft) N 349 0 min 0,0 UV-I 31 W/m 5,5 C 4,9 C 20,9 km/h (4 Bft)
02.06.2023 07:00 7,7 C 8,3 C 85 % 1019,9 hPa 0,0 l/m 16,1 km/h (3 Bft) N 9 0 min 0,0 UV-I 32 W/m 5,3 C 1,9 C 24,1 km/h (4 Bft)
02.06.2023 07:01 7,7 C 8,3 C 85 % 1019,9 hPa 0,0 l/m 20,9 km/h (4 Bft) N 360 0 min 0,0 UV-I 32 W/m 5,3 C 0,0 C 24,1 km/h (4 Bft)
02.06.2023 07:03 7,6 C 8,3 C 85 % 1020,0 hPa 0,0 l/m 17,0 km/h (3 Bft) N-NW 333 0 min 0,0 UV-I 32 W/m 5,2 C 1,3 C 22,5 km/h (4 Bft)
02.06.2023 07:06 7,6 C 7,8 C 85 % 1020,0 hPa 0,0 l/m 14,2 km/h (3 Bft) N-NW 340 0 min 0,0 UV-I 33 W/m 5,2 C 2,6 C 20,9 km/h (4 Bft)
02.06.2023 07:09 7,6 C 7,8 C 85 % 1020,0 hPa 0,0 l/m 13,6 km/h (3 Bft) N 351 0 min 0,0 UV-I 32 W/m 5,2 C 2,9 C 19,3 km/h (3 Bft)
02.06.2023 07:12 7,6 C 8,3 C 85 % 1020,0 hPa 0,0 l/m 14,2 km/h (3 Bft) N 360 0 min 0,0 UV-I 34 W/m 5,2 C 2,6 C 19,3 km/h (3 Bft)
02.06.2023 07:15 7,6 C 8,3 C 85 % 1020,0 hPa 0,0 l/m 11,4 km/h (2 Bft) N-NW 342 0 min 0,0 UV-I 37 W/m 5,2 C 4,1 C 17,7 km/h (3 Bft)
02.06.2023 07:18 7,6 C 8,3 C 85 % 1020,0 hPa 0,0 l/m 11,7 km/h (2 Bft) N 360 0 min 0,0 UV-I 40 W/m 5,2 C 3,9 C 17,7 km/h (3 Bft)
02.06.2023 07:21 7,7 C 8,3 C 86 % 1020,0 hPa 0,0 l/m 12,1 km/h (2 Bft) N 5 0 min 0,0 UV-I 44 W/m 5,5 C 3,8 C 17,7 km/h (3 Bft)
02.06.2023 07:24 7,7 C 8,3 C 85 % 1020,1 hPa 0,0 l/m 13,2 km/h (3 Bft) N-NO 26 0 min 0,0 UV-I 48 W/m 5,3 C 3,2 C 20,9 km/h (4 Bft)
02.06.2023 07:27 7,6 C 8,3 C 85 % 1020,1 hPa 0,0 l/m 13,8 km/h (3 Bft) N 355 0 min 0,0 UV-I 47 W/m 5,2 C 2,8 C 20,9 km/h (4 Bft)
02.06.2023 07:30 7,7 C 8,3 C 85 % 1020,0 hPa 0,0 l/m 9,3 km/h (2 Bft) N 5 0 min 0,0 UV-I 49 W/m 5,3 C 5,5 C 16,1 km/h (3 Bft)
02.06.2023 07:33 7,7 C 8,3 C 85 % 1020,0 hPa 0,0 l/m 11,1 km/h (2 Bft) N 355 0 min 0,0 UV-I 52 W/m 5,3 C 4,4 C 17,7 km/h (3 Bft)
02.06.2023 07:36 7,6 C 8,3 C 85 % 1020,1 hPa 0,0 l/m 12,9 km/h (3 Bft) N-NO 16 0 min 0,0 UV-I 57 W/m 5,2 C 3,3 C 19,3 km/h (3 Bft)
02.06.2023 07:39 7,7 C 8,9 C 85 % 1020,0 hPa 0,0 l/m 9,4 km/h (2 Bft) N-NW 342 0 min 0,0 UV-I 62 W/m 5,3 C 5,4 C 14,5 km/h (3 Bft)
02.06.2023 07:42 7,7 C 8,9 C 85 % 1020,0 hPa 0,0 l/m 9,7 km/h (2 Bft) N 355 0 min 0,0 UV-I 66 W/m 5,3 C 5,2 C 16,1 km/h (3 Bft)
02.06.2023 07:45 7,7 C 8,9 C 84 % 1020,0 hPa 0,0 l/m 18,3 km/h (3 Bft) N 5 0 min 0,0 UV-I 73 W/m 5,2 C 0,9 C 22,5 km/h (4 Bft)
02.06.2023 07:48 7,7 C 8,9 C 85 % 1020,0 hPa 0,0 l/m 12,1 km/h (2 Bft) N 5 0 min 0,0 UV-I 76 W/m 5,3 C 3,8 C 20,9 km/h (4 Bft)
02.06.2023 07:51 7,6 C 8,9 C 84 % 1020,0 hPa 0,0 l/m 18,1 km/h (3 Bft) N 5 0 min 0,0 UV-I 79 W/m 5,1 C 0,9 C 25,7 km/h (4 Bft)
02.06.2023 07:54 7,6 C 8,9 C 84 % 1020,0 hPa 0,0 l/m 16,5 km/h (3 Bft) N-NO 19 0 min 0,0 UV-I 75 W/m 5,1 C 1,6 C 25,7 km/h (4 Bft)
02.06.2023 07:57 7,5 C 8,9 C 84 % 1020,0 hPa 0,0 l/m 17,4 km/h (3 Bft) N-NO 22 0 min 0,3 UV-I 88 W/m 5,0 C 1,1 C 24,1 km/h (4 Bft)
02.06.2023 08:00 7,6 C 8,9 C 84 % 1019,9 hPa 0,0 l/m 16,3 km/h (3 Bft) N 5 0 min 0,5 UV-I 96 W/m 5,1 C 1,6 C 29,0 km/h (5 Bft)
02.06.2023 08:03 7,5 C 8,9 C 84 % 1019,9 hPa 0,0 l/m 14,3 km/h (3 Bft) N 10 0 min 0,5 UV-I 98 W/m 5,0 C 2,4 C 24,1 km/h (4 Bft)
02.06.2023 08:06 7,6 C 8,9 C 84 % 1020,0 hPa 0,0 l/m 13,3 km/h (3 Bft) N-NO 17 0 min 0,5 UV-I 105 W/m 5,1 C 3,1 C 19,3 km/h (3 Bft)
02.06.2023 08:09 7,6 C 8,9 C 84 % 1020,0 hPa 0,0 l/m 16,1 km/h (3 Bft) N 355 0 min 0,6 UV-I 107 W/m 5,1 C 1,7 C 20,9 km/h (4 Bft)
02.06.2023 08:12 7,6 C 8,9 C 84 % 1020,0 hPa 0,0 l/m 15,5 km/h (3 Bft) N-NW 346 0 min 0,6 UV-I 113 W/m 5,1 C 2,0 C 24,1 km/h (4 Bft)
02.06.2023 08:15 7,4 C 8,9 C 83 % 1020,1 hPa 0,0 l/m 17,1 km/h (3 Bft) N-NW 340 0 min 0,6 UV-I 117 W/m 4,7 C 1,1 C 27,4 km/h (4 Bft)
02.06.2023 08:18 7,4 C 8,9 C 83 % 1020,1 hPa 0,0 l/m 18,6 km/h (3 Bft) N-NW 331 0 min 0,7 UV-I 124 W/m 4,7 C 0,5 C 27,4 km/h (4 Bft)
02.06.2023 08:21 7,3 C 8,9 C 83 % 1020,1 hPa 0,0 l/m 23,1 km/h (4 Bft) N-NW 344 0 min 0,7 UV-I 132 W/m 4,6 C -1,3 C 29,0 km/h (5 Bft)
02.06.2023 08:24 7,3 C 8,9 C 83 % 1020,1 hPa 0,0 l/m 16,8 km/h (3 Bft) N 10 0 min 0,8 UV-I 134 W/m 4,6 C 1,1 C 27,4 km/h (4 Bft)
02.06.2023 08:27 7,4 C 8,9 C 83 % 1020,0 hPa 0,0 l/m 16,7 km/h (3 Bft) N 355 0 min 0,8 UV-I 148 W/m 4,7 C 1,2 C 27,4 km/h (4 Bft)
02.06.2023 08:30 7,4 C 9,4 C 82 % 1020,1 hPa 0,0 l/m 19,0 km/h (3 Bft) N 355 0 min 0,9 UV-I 168 W/m 4,5 C 0,3 C 25,7 km/h (4 Bft)
02.06.2023 08:33 7,6 C 9,4 C 83 % 1020,3 hPa 0,0 l/m 16,7 km/h (3 Bft) N 5 0 min 1,0 UV-I 186 W/m 4,9 C 1,5 C 24,1 km/h (4 Bft)
02.06.2023 08:36 7,6 C 9,4 C 82 % 1020,3 hPa 0,0 l/m 17,8 km/h (3 Bft) N 360 0 min 1,0 UV-I 172 W/m 4,7 C 1,0 C 29,0 km/h (5 Bft)
02.06.2023 08:39 7,6 C 10,0 C 82 % 1020,3 hPa 0,0 l/m 17,2 km/h (3 Bft) N-NO 14 0 min 0,9 UV-I 176 W/m 4,7 C 1,3 C 24,1 km/h (4 Bft)
02.06.2023 08:42 7,6 C 10,0 C 82 % 1020,3 hPa 0,0 l/m 11,5 km/h (2 Bft) NO 53 0 min 0,9 UV-I 171 W/m 4,7 C 4,0 C 19,3 km/h (3 Bft)
02.06.2023 08:45 7,8 C 10,6 C 83 % 1020,2 hPa 0,0 l/m 11,8 km/h (2 Bft) NO 34 0 min 1,0 UV-I 197 W/m 5,1 C 4,1 C 17,7 km/h (3 Bft)
02.06.2023 08:48 7,8 C 10,6 C 82 % 1020,3 hPa 0,0 l/m 13,1 km/h (3 Bft) N-NO 22 0 min 1,0 UV-I 194 W/m 4,9 C 3,4 C 20,9 km/h (4 Bft)
02.06.2023 08:51 7,8 C 10,0 C 81 % 1020,3 hPa 0,0 l/m 15,9 km/h (3 Bft) N 11 0 min 1,0 UV-I 187 W/m 4,7 C 2,1 C 24,1 km/h (4 Bft)
02.06.2023 08:54 7,7 C 10,0 C 82 % 1020,3 hPa 0,0 l/m 18,2 km/h (3 Bft) N-NO 21 0 min 0,9 UV-I 175 W/m 4,8 C 1,0 C 25,7 km/h (4 Bft)
02.06.2023 08:57 7,7 C 9,4 C 82 % 1020,4 hPa 0,0 l/m 17,6 km/h (3 Bft) N 360 0 min 0,9 UV-I 173 W/m 4,8 C 1,2 C 25,7 km/h (4 Bft)
02.06.2023 09:00 7,6 C 10,0 C 82 % 1020,4 hPa 0,0 l/m 19,5 km/h (3 Bft) N 355 0 min 1,0 UV-I 180 W/m 4,7 C 0,4 C 29,0 km/h (5 Bft)
02.06.2023 09:03 7,6 C 9,4 C 82 % 1020,3 hPa 0,0 l/m 16,0 km/h (3 Bft) N-NW 340 0 min 1,0 UV-I 176 W/m 4,7 C 1,8 C 24,1 km/h (4 Bft)
02.06.2023 09:06 7,6 C 9,4 C 82 % 1020,3 hPa 0,0 l/m 19,5 km/h (3 Bft) N 355 0 min 1,0 UV-I 186 W/m 4,7 C 0,4 C 32,2 km/h (5 Bft)
02.06.2023 09:09 7,6 C 9,4 C 82 % 1020,3 hPa 0,0 l/m 17,1 km/h (3 Bft) N-NW 342 0 min 1,0 UV-I 193 W/m 4,7 C 1,3 C 25,7 km/h (4 Bft)
02.06.2023 09:12 7,7 C 10,0 C 82 % 1020,3 hPa 0,0 l/m 16,2 km/h (3 Bft) N-NW 346 0 min 1,3 UV-I 227 W/m 4,8 C 1,8 C 27,4 km/h (4 Bft)
02.06.2023 09:15 7,7 C 10,6 C 82 % 1020,3 hPa 0,0 l/m 17,6 km/h (3 Bft) N-NW 348 0 min 1,3 UV-I 228 W/m 4,8 C 1,2 C 24,1 km/h (4 Bft)
02.06.2023 09:18 7,8 C 10,6 C 82 % 1020,4 hPa 0,0 l/m 14,2 km/h (3 Bft) N 5 0 min 1,3 UV-I 234 W/m 4,9 C 2,8 C 27,4 km/h (4 Bft)
02.06.2023 09:21 7,8 C 10,6 C 81 % 1020,4 hPa 0,0 l/m 19,2 km/h (3 Bft) N-NW 344 0 min 1,4 UV-I 231 W/m 4,7 C 0,7 C 29,0 km/h (5 Bft)
02.06.2023 09:24 7,8 C 10,6 C 81 % 1020,4 hPa 0,0 l/m 16,2 km/h (3 Bft) N-NO 21 0 min 1,4 UV-I 251 W/m 4,7 C 1,9 C 25,7 km/h (4 Bft)
02.06.2023 09:27 7,8 C 10,6 C 82 % 1020,4 hPa 0,0 l/m 14,1 km/h (3 Bft) N 10 0 min 1,5 UV-I 267 W/m 4,9 C 2,9 C 22,5 km/h (4 Bft)
02.06.2023 09:30 8,1 C 11,7 C 81 % 1020,3 hPa 0,0 l/m 13,1 km/h (3 Bft) N 9 0 min 1,5 UV-I 272 W/m 5,0 C 3,7 C 20,9 km/h (4 Bft)
02.06.2023 09:33 8,3 C 11,7 C 81 % 1020,5 hPa 0,0 l/m 10,5 km/h (2 Bft) N-NO 18 0 min 1,6 UV-I 295 W/m 5,2 C 5,4 C 17,7 km/h (3 Bft)
02.06.2023 09:36 8,4 C 11,7 C 81 % 1020,4 hPa 0,0 l/m 13,5 km/h (3 Bft) N-NW 343 3 min 1,8 UV-I 329 W/m 5,3 C 3,9 C 20,9 km/h (4 Bft)
02.06.2023 09:39 8,6 C 12,2 C 81 % 1020,4 hPa 0,0 l/m 12,8 km/h (3 Bft) N-NO 28 3 min 2,1 UV-I 377 W/m 5,5 C 4,5 C 22,5 km/h (4 Bft)
02.06.2023 09:42 8,7 C 12,2 C 80 % 1020,4 hPa 0,0 l/m 19,2 km/h (3 Bft) N-NO 23 3 min 2,0 UV-I 490 W/m 5,4 C 1,9 C 27,4 km/h (4 Bft)
02.06.2023 09:45 8,4 C 11,7 C 79 % 1020,5 hPa 0,0 l/m 18,9 km/h (3 Bft) N-NO 21 0 min 1,9 UV-I 292 W/m 5,0 C 1,6 C 25,7 km/h (4 Bft)
02.06.2023 09:48 8,3 C 11,1 C 80 % 1020,4 hPa 0,0 l/m 17,3 km/h (3 Bft) N-NO 20 0 min 1,9 UV-I 287 W/m 5,1 C 2,1 C 22,5 km/h (4 Bft)
02.06.2023 09:51 8,5 C 11,7 C 81 % 1020,4 hPa 0,0 l/m 15,0 km/h (3 Bft) N-NO 28 3 min 2,3 UV-I 403 W/m 5,4 C 3,3 C 20,9 km/h (4 Bft)
02.06.2023 09:54 8,8 C 12,2 C 80 % 1020,4 hPa 0,0 l/m 12,9 km/h (3 Bft) N-NO 19 3 min 2,2 UV-I 393 W/m 5,5 C 4,7 C 17,7 km/h (3 Bft)
02.06.2023 09:57 9,1 C 12,8 C 79 % 1020,4 hPa 0,0 l/m 11,3 km/h (2 Bft) N 11 3 min 2,7 UV-I 431 W/m 5,7 C 5,9 C 17,7 km/h (3 Bft)
02.06.2023 10:00 9,3 C 13,3 C 79 % 1020,3 hPa 0,0 l/m 14,2 km/h (3 Bft) N 5 3 min 2,3 UV-I 433 W/m 5,8 C 4,6 C 19,3 km/h (3 Bft)
02.06.2023 10:03 9,3 C 13,9 C 79 % 1020,4 hPa 0,0 l/m 10,0 km/h (2 Bft) N 5 3 min 2,1 UV-I 387 W/m 5,8 C 6,8 C 16,1 km/h (3 Bft)
02.06.2023 10:06 9,5 C 14,4 C 79 % 1020,3 hPa 0,0 l/m 11,0 km/h (2 Bft) N-NO 24 3 min 2,1 UV-I 385 W/m 6,0 C 6,5 C 19,3 km/h (3 Bft)
02.06.2023 10:09 9,6 C 13,9 C 79 % 1020,4 hPa 0,0 l/m 12,4 km/h (3 Bft) N-NW 344 3 min 2,2 UV-I 411 W/m 6,1 C 5,9 C 19,3 km/h (3 Bft)
02.06.2023 10:12 9,3 C 14,4 C 77 % 1020,4 hPa 0,0 l/m 16,4 km/h (3 Bft) N-NW 331 3 min 2,2 UV-I 378 W/m 5,5 C 3,7 C 20,9 km/h (4 Bft)
02.06.2023 10:15 9,2 C 13,3 C 79 % 1020,4 hPa 0,0 l/m 12,7 km/h (3 Bft) N-NW 348 3 min 2,4 UV-I 397 W/m 5,8 C 5,2 C 24,1 km/h (4 Bft)
02.06.2023 10:18 9,3 C 13,9 C 79 % 1020,4 hPa 0,0 l/m 10,3 km/h (2 Bft) N 355 3 min 3,1 UV-I 405 W/m 5,8 C 6,6 C 16,1 km/h (3 Bft)
02.06.2023 10:21 9,6 C 13,9 C 78 % 1020,3 hPa 0,0 l/m 12,6 km/h (3 Bft) N 355 3 min 2,8 UV-I 403 W/m 6,0 C 5,8 C 20,9 km/h (4 Bft)
02.06.2023 10:24 9,4 C 13,9 C 78 % 1020,3 hPa 0,0 l/m 16,7 km/h (3 Bft) N 9 3 min 3,1 UV-I 426 W/m 5,8 C 3,7 C 20,9 km/h (4 Bft)
02.06.2023 10:27 9,8 C 14,4 C 78 % 1020,4 hPa 0,0 l/m 15,0 km/h (3 Bft) NO 45 3 min 3,6 UV-I 593 W/m 6,1 C 4,9 C 19,3 km/h (3 Bft)
02.06.2023 10:30 9,7 C 13,9 C 75 % 1020,3 hPa 0,0 l/m 11,6 km/h (2 Bft) NO 49 3 min 3,5 UV-I 611 W/m 5,5 C 6,4 C 20,9 km/h (4 Bft)
02.06.2023 10:33 9,9 C 13,9 C 77 % 1020,2 hPa 0,0 l/m 13,9 km/h (3 Bft) N-NO 24 3 min 3,7 UV-I 665 W/m 6,1 C 5,5 C 24,1 km/h (4 Bft)
02.06.2023 10:36 10,0 C 14,4 C 77 % 1020,2 hPa 0,0 l/m 11,1 km/h (2 Bft) NO 40 3 min 3,7 UV-I 672 W/m 6,2 C 7,0 C 20,9 km/h (4 Bft)
02.06.2023 10:39 10,3 C 14,4 C 77 % 1020,3 hPa 0,0 l/m 13,4 km/h (3 Bft) N 350 3 min 3,7 UV-I 674 W/m 6,4 C 6,2 C 19,3 km/h (3 Bft)
02.06.2023 10:42 10,1 C 14,4 C 75 % 1020,1 hPa 0,0 l/m 8,2 km/h (2 Bft) W-NW 292 3 min 3,7 UV-I 644 W/m 5,9 C 8,8 C 14,5 km/h (3 Bft)
02.06.2023 10:45 10,4 C 15,0 C 75 % 1020,1 hPa 0,0 l/m 11,2 km/h (2 Bft) N-NO 24 3 min 3,7 UV-I 652 W/m 6,2 C 7,4 C 19,3 km/h (3 Bft)
02.06.2023 10:48 10,7 C 15,0 C 75 % 1020,3 hPa 0,0 l/m 15,1 km/h (3 Bft) N 5 3 min 3,8 UV-I 670 W/m 6,5 C 5,9 C 20,9 km/h (4 Bft)
02.06.2023 10:51 10,7 C 15,0 C 74 % 1020,3 hPa 0,0 l/m 12,8 km/h (3 Bft) N-NO 18 3 min 3,9 UV-I 678 W/m 6,3 C 6,9 C 19,3 km/h (3 Bft)
02.06.2023 10:54 10,8 C 16,1 C 73 % 1020,3 hPa 0,0 l/m 15,6 km/h (3 Bft) N-NO 12 3 min 3,9 UV-I 663 W/m 6,2 C 5,9 C 24,1 km/h (4 Bft)
02.06.2023 10:57 10,6 C 16,1 C 73 % 1020,4 hPa 0,0 l/m 12,2 km/h (2 Bft) NO 34 3 min 4,0 UV-I 682 W/m 6,0 C 7,1 C 17,7 km/h (3 Bft)
02.06.2023 11:00 10,7 C 16,7 C 73 % 1020,3 hPa 0,0 l/m 16,6 km/h (3 Bft) N-NO 25 3 min 4,0 UV-I 676 W/m 6,1 C 5,4 C 24,1 km/h (4 Bft)
02.06.2023 11:03 10,7 C 16,1 C 74 % 1020,3 hPa 0,0 l/m 11,4 km/h (2 Bft) N 355 3 min 4,1 UV-I 692 W/m 6,3 C 7,6 C 19,3 km/h (3 Bft)
02.06.2023 11:06 11,1 C 17,8 C 74 % 1020,3 hPa 0,0 l/m 12,9 km/h (3 Bft) N-NO 28 3 min 4,2 UV-I 704 W/m 6,6 C 7,4 C 17,7 km/h (3 Bft)
02.06.2023 11:09 11,3 C 17,8 C 74 % 1020,4 hPa 0,0 l/m 14,2 km/h (3 Bft) N 9 3 min 4,3 UV-I 707 W/m 6,8 C 7,0 C 19,3 km/h (3 Bft)
02.06.2023 11:12 11,4 C 18,9 C 72 % 1020,4 hPa 0,0 l/m 14,8 km/h (3 Bft) N-NO 16 3 min 4,3 UV-I 706 W/m 6,5 C 6,9 C 22,5 km/h (4 Bft)
02.06.2023 11:15 11,1 C 18,3 C 69 % 1020,4 hPa 0,0 l/m 15,5 km/h (3 Bft) N-NO 32 3 min 4,4 UV-I 728 W/m 5,6 C 6,3 C 24,1 km/h (4 Bft)
02.06.2023 11:18 11,1 C 18,3 C 72 % 1020,4 hPa 0,0 l/m 13,6 km/h (3 Bft) N 355 3 min 4,5 UV-I 743 W/m 6,2 C 7,1 C 20,9 km/h (4 Bft)
02.06.2023 11:21 11,4 C 17,8 C 71 % 1020,4 hPa 0,0 l/m 11,6 km/h (2 Bft) N-NO 19 3 min 4,6 UV-I 749 W/m 6,3 C 8,3 C 19,3 km/h (3 Bft)
02.06.2023 11:24 11,7 C 18,3 C 70 % 1020,4 hPa 0,0 l/m 12,6 km/h (3 Bft) NO 53 3 min 4,6 UV-I 731 W/m 6,4 C 8,2 C 20,9 km/h (4 Bft)
02.06.2023 11:27 11,7 C 18,3 C 71 % 1020,4 hPa 0,0 l/m 13,9 km/h (3 Bft) N 5 3 min 4,6 UV-I 721 W/m 6,6 C 7,6 C 19,3 km/h (3 Bft)
02.06.2023 11:30 11,7 C 18,3 C 69 % 1020,4 hPa 0,0 l/m 13,0 km/h (3 Bft) N-NO 19 3 min 4,7 UV-I 759 W/m 6,2 C 8,0 C 22,5 km/h (4 Bft)
02.06.2023 11:33 12,0 C 19,4 C 70 % 1020,3 hPa 0,0 l/m 16,5 km/h (3 Bft) NO 36 3 min 4,8 UV-I 766 W/m 6,7 C 7,0 C 24,1 km/h (4 Bft)
02.06.2023 11:36 11,9 C 19,4 C 68 % 1020,4 hPa 0,0 l/m 17,7 km/h (3 Bft) N-NO 29 3 min 4,9 UV-I 790 W/m 6,2 C 6,5 C 24,1 km/h (4 Bft)
02.06.2023 11:39 11,8 C 19,4 C 69 % 1020,4 hPa 0,0 l/m 12,2 km/h (2 Bft) N 350 3 min 4,8 UV-I 778 W/m 6,3 C 8,5 C 22,5 km/h (4 Bft)
02.06.2023 11:42 11,9 C 19,4 C 68 % 1020,4 hPa 0,0 l/m 12,6 km/h (3 Bft) N-NO 28 3 min 4,9 UV-I 785 W/m 6,2 C 8,4 C 22,5 km/h (4 Bft)
02.06.2023 11:45 11,9 C 20,6 C 67 % 1020,4 hPa 0,0 l/m 12,6 km/h (3 Bft) N 355 3 min 5,0 UV-I 790 W/m 6,0 C 8,4 C 19,3 km/h (3 Bft)
02.06.2023 11:48 12,2 C 20,6 C 70 % 1020,4 hPa 0,0 l/m 12,7 km/h (3 Bft) N-NO 15 3 min 4,9 UV-I 763 W/m 6,9 C 8,7 C 20,9 km/h (4 Bft)
02.06.2023 11:51 12,2 C 20,0 C 66 % 1020,3 hPa 0,0 l/m 12,8 km/h (3 Bft) N 11 3 min 5,1 UV-I 794 W/m 6,0 C 8,7 C 19,3 km/h (3 Bft)
02.06.2023 11:54 12,2 C 20,6 C 68 % 1020,3 hPa 0,0 l/m 8,9 km/h (2 Bft) N-NW 346 3 min 5,1 UV-I 781 W/m 6,5 C 10,6 C 16,1 km/h (3 Bft)
02.06.2023 11:57 12,6 C 20,6 C 70 % 1020,4 hPa 0,0 l/m 11,0 km/h (2 Bft) N 355 3 min 5,1 UV-I 786 W/m 7,3 C 10,0 C 14,5 km/h (3 Bft)
02.06.2023 12:00 12,8 C 21,1 C 69 % 1020,3 hPa 0,0 l/m 12,5 km/h (3 Bft) N-NO 29 3 min 5,3 UV-I 816 W/m 7,3 C 9,5 C 22,5 km/h (4 Bft)
02.06.2023 12:03 13,1 C 21,7 C 68 % 1020,3 hPa 0,0 l/m 12,1 km/h (2 Bft) N 349 3 min 5,3 UV-I 822 W/m 7,3 C 10,0 C 20,9 km/h (4 Bft)
02.06.2023 12:06 12,7 C 20,6 C 65 % 1020,3 hPa 0,0 l/m 11,4 km/h (2 Bft) NO 53 3 min 5,3 UV-I 818 W/m 6,3 C 9,9 C 20,9 km/h (4 Bft)
02.06.2023 12:09 12,8 C 20,6 C 70 % 1020,2 hPa 0,0 l/m 13,3 km/h (3 Bft) N-NO 22 3 min 5,1 UV-I 782 W/m 7,5 C 9,2 C 22,5 km/h (4 Bft)
02.06.2023 12:12 12,8 C 20,6 C 68 % 1020,4 hPa 0,0 l/m 15,4 km/h (3 Bft) N-NW 345 3 min 4,2 UV-I 815 W/m 7,0 C 8,4 C 20,9 km/h (4 Bft)
02.06.2023 12:15 12,6 C 21,1 C 66 % 1020,3 hPa 0,0 l/m 13,7 km/h (3 Bft) N-NO 28 3 min 5,4 UV-I 805 W/m 6,4 C 8,8 C 19,3 km/h (3 Bft)
02.06.2023 12:18 12,7 C 20,0 C 67 % 1020,3 hPa 0,0 l/m 13,3 km/h (3 Bft) N 10 3 min 5,4 UV-I 819 W/m 6,7 C 9,1 C 17,7 km/h (3 Bft)
02.06.2023 12:21 13,1 C 21,1 C 67 % 1020,4 hPa 0,0 l/m 14,9 km/h (3 Bft) N-NO 32 3 min 5,5 UV-I 839 W/m 7,1 C 8,9 C 20,9 km/h (4 Bft)
02.06.2023 12:24 13,1 C 21,1 C 68 % 1020,2 hPa 0,0 l/m 11,4 km/h (2 Bft) O-NO 57 3 min 5,4 UV-I 808 W/m 7,3 C 10,4 C 19,3 km/h (3 Bft)
02.06.2023 12:27 13,4 C 21,7 C 67 % 1020,3 hPa 0,0 l/m 15,7 km/h (3 Bft) N-NO 15 3 min 5,5 UV-I 834 W/m 7,4 C 9,0 C 24,1 km/h (4 Bft)
02.06.2023 12:30 13,1 C 21,1 C 66 % 1020,3 hPa 0,0 l/m 12,5 km/h (3 Bft) N-NO 29 3 min 5,6 UV-I 845 W/m 6,9 C 9,9 C 20,9 km/h (4 Bft)
02.06.2023 12:33 13,1 C 21,7 C 68 % 1020,3 hPa 0,0 l/m 11,8 km/h (2 Bft) N 355 3 min 5,4 UV-I 802 W/m 7,3 C 10,2 C 20,9 km/h (4 Bft)
02.06.2023 12:36 13,2 C 22,2 C 67 % 1020,2 hPa 0,0 l/m 14,4 km/h (3 Bft) N-NO 26 3 min 5,6 UV-I 845 W/m 7,2 C 9,2 C 20,9 km/h (4 Bft)
02.06.2023 12:39 13,3 C 22,8 C 67 % 1020,3 hPa 0,0 l/m 16,7 km/h (3 Bft) N-NO 17 3 min 5,6 UV-I 825 W/m 7,3 C 8,5 C 20,9 km/h (4 Bft)
02.06.2023 12:42 13,2 C 22,8 C 67 % 1020,3 hPa 0,0 l/m 13,1 km/h (3 Bft) N-NW 342 3 min 5,7 UV-I 850 W/m 7,2 C 9,7 C 20,9 km/h (4 Bft)
02.06.2023 12:45 13,4 C 22,8 C 66 % 1020,1 hPa 0,0 l/m 13,8 km/h (3 Bft) N-NO 13 3 min 5,7 UV-I 847 W/m 7,2 C 9,7 C 20,9 km/h (4 Bft)
02.06.2023 12:48 13,4 C 23,3 C 64 % 1020,2 hPa 0,0 l/m 16,6 km/h (3 Bft) N-NO 28 3 min 5,8 UV-I 846 W/m 6,7 C 8,7 C 24,1 km/h (4 Bft)
02.06.2023 12:51 13,5 C 22,2 C 65 % 1020,3 hPa 0,0 l/m 15,5 km/h (3 Bft) NO 34 3 min 5,7 UV-I 849 W/m 7,1 C 9,2 C 24,1 km/h (4 Bft)
02.06.2023 12:54 13,8 C 22,8 C 64 % 1020,3 hPa 0,0 l/m 14,5 km/h (3 Bft) N-NO 25 3 min 5,8 UV-I 858 W/m 7,1 C 9,9 C 20,9 km/h (4 Bft)
02.06.2023 12:57 13,7 C 23,3 C 65 % 1020,3 hPa 0,0 l/m 14,9 km/h (3 Bft) N 355 3 min 5,8 UV-I 854 W/m 7,2 C 9,7 C 22,5 km/h (4 Bft)
02.06.2023 13:00 13,4 C 22,8 C 65 % 1020,5 hPa 0,0 l/m 16,8 km/h (3 Bft) N-NW 346 3 min 5,8 UV-I 848 W/m 7,0 C 8,6 C 24,1 km/h (4 Bft)
02.06.2023 13:03 13,2 C 24,4 C 66 % 1020,4 hPa 0,0 l/m 11,4 km/h (2 Bft) N-NW 339 3 min 5,8 UV-I 868 W/m 7,0 C 10,5 C 20,9 km/h (4 Bft)
02.06.2023 13:06 13,6 C 24,4 C 66 % 1020,4 hPa 0,0 l/m 14,8 km/h (3 Bft) N 355 3 min 5,8 UV-I 862 W/m 7,4 C 9,6 C 22,5 km/h (4 Bft)
02.06.2023 13:09 13,7 C 25,0 C 65 % 1020,4 hPa 0,0 l/m 13,0 km/h (3 Bft) NO 35 3 min 5,9 UV-I 856 W/m 7,2 C 10,4 C 22,5 km/h (4 Bft)
02.06.2023 13:12 13,8 C 25,6 C 66 % 1020,5 hPa 0,0 l/m 15,1 km/h (3 Bft) N-NW 342 3 min 5,9 UV-I 870 W/m 7,6 C 9,7 C 20,9 km/h (4 Bft)
02.06.2023 13:15 13,8 C 23,9 C 65 % 1020,5 hPa 0,0 l/m 10,5 km/h (2 Bft) NO 40 3 min 5,9 UV-I 875 W/m 7,3 C 11,6 C 19,3 km/h (3 Bft)
02.06.2023 13:18 13,7 C 23,3 C 64 % 1020,5 hPa 0,0 l/m 16,3 km/h (3 Bft) N-NW 331 3 min 5,9 UV-I 866 W/m 7,0 C 9,2 C 25,7 km/h (4 Bft)
02.06.2023 13:21 13,5 C 25,0 C 64 % 1020,6 hPa 0,0 l/m 11,9 km/h (2 Bft) N-NW 346 3 min 5,9 UV-I 865 W/m 6,8 C 10,6 C 16,1 km/h (3 Bft)
02.06.2023 13:24 13,7 C 24,4 C 67 % 1020,6 hPa 0,0 l/m 14,6 km/h (3 Bft) N-NO 19 3 min 5,9 UV-I 866 W/m 7,7 C 9,8 C 19,3 km/h (3 Bft)
02.06.2023 13:27 13,9 C 23,3 C 66 % 1020,5 hPa 0,0 l/m 14,8 km/h (3 Bft) N 5 3 min 5,9 UV-I 853 W/m 7,7 C 9,9 C 19,3 km/h (3 Bft)
02.06.2023 13:30 14,1 C 25,0 C 68 % 1020,5 hPa 0,0 l/m 15,4 km/h (3 Bft) N-NW 340 3 min 6,0 UV-I 870 W/m 8,3 C 10,0 C 22,5 km/h (4 Bft)
02.06.2023 13:33 13,9 C 24,4 C 66 % 1020,5 hPa 0,0 l/m 14,4 km/h (3 Bft) N 355 3 min 5,9 UV-I 868 W/m 7,7 C 10,1 C 19,3 km/h (3 Bft)
02.06.2023 13:36 13,8 C 23,9 C 64 % 1020,4 hPa 0,0 l/m 16,2 km/h (3 Bft) N-NO 19 3 min 6,0 UV-I 873 W/m 7,1 C 9,3 C 27,4 km/h (4 Bft)
02.06.2023 13:39 14,1 C 24,4 C 67 % 1020,4 hPa 0,0 l/m 15,7 km/h (3 Bft) N-NW 340 3 min 5,9 UV-I 868 W/m 8,1 C 9,9 C 27,4 km/h (4 Bft)
02.06.2023 13:42 14,0 C 24,4 C 64 % 1020,4 hPa 0,0 l/m 14,7 km/h (3 Bft) N-NW 335 3 min 6,0 UV-I 880 W/m 7,3 C 10,1 C 27,4 km/h (4 Bft)
02.06.2023 13:45 14,2 C 24,4 C 66 % 1020,4 hPa 0,0 l/m 12,7 km/h (3 Bft) NW 325 3 min 6,0 UV-I 874 W/m 7,9 C 11,1 C 22,5 km/h (4 Bft)
02.06.2023 13:48 14,1 C 25,0 C 66 % 1020,4 hPa 0,0 l/m 11,8 km/h (2 Bft) N 360 3 min 5,9 UV-I 864 W/m 7,8 C 11,3 C 20,9 km/h (4 Bft)
02.06.2023 13:51 14,3 C 25,0 C 66 % 1020,3 hPa 0,0 l/m 16,5 km/h (3 Bft) N-NW 339 3 min 6,0 UV-I 867 W/m 8,0 C 9,9 C 24,1 km/h (4 Bft)
02.06.2023 13:54 14,2 C 24,4 C 65 % 1020,5 hPa 0,0 l/m 19,4 km/h (3 Bft) N-NO 28 3 min 6,0 UV-I 865 W/m 7,7 C 8,9 C 25,7 km/h (4 Bft)
02.06.2023 13:57 14,0 C 25,6 C 64 % 1020,5 hPa 0,0 l/m 10,8 km/h (2 Bft) N-NO 29 3 min 6,0 UV-I 871 W/m 7,3 C 11,6 C 19,3 km/h (3 Bft)
02.06.2023 14:00 14,3 C 25,6 C 68 % 1020,4 hPa 0,0 l/m 11,4 km/h (2 Bft) N 5 3 min 5,9 UV-I 867 W/m 8,5 C 11,7 C 19,3 km/h (3 Bft)
02.06.2023 14:03 14,6 C 25,0 C 66 % 1020,4 hPa 0,0 l/m 13,9 km/h (3 Bft) N 350 3 min 6,0 UV-I 870 W/m 8,3 C 11,1 C 22,5 km/h (4 Bft)
02.06.2023 14:06 14,3 C 25,0 C 63 % 1020,4 hPa 0,0 l/m 15,2 km/h (3 Bft) N 355 3 min 6,0 UV-I 870 W/m 7,4 C 10,3 C 20,9 km/h (4 Bft)
02.06.2023 14:09 14,4 C 25,0 C 66 % 1020,4 hPa 0,0 l/m 14,8 km/h (3 Bft) N-NW 342 3 min 6,0 UV-I 867 W/m 8,1 C 10,5 C 22,5 km/h (4 Bft)
02.06.2023 14:12 14,3 C 24,4 C 66 % 1020,4 hPa 0,0 l/m 15,1 km/h (3 Bft) N-NW 342 3 min 5,9 UV-I 865 W/m 8,0 C 10,3 C 25,7 km/h (4 Bft)
02.06.2023 14:15 14,4 C 25,0 C 67 % 1020,3 hPa 0,0 l/m 15,9 km/h (3 Bft) N-NW 338 3 min 5,9 UV-I 861 W/m 8,4 C 10,2 C 22,5 km/h (4 Bft)
02.06.2023 14:18 14,5 C 25,0 C 65 % 1020,4 hPa 0,0 l/m 14,2 km/h (3 Bft) N-NW 344 3 min 6,0 UV-I 869 W/m 8,0 C 10,9 C 22,5 km/h (4 Bft)
02.06.2023 14:21 14,3 C 25,0 C 64 % 1020,4 hPa 0,0 l/m 15,1 km/h (3 Bft) N-NO 20 3 min 5,9 UV-I 864 W/m 7,6 C 10,3 C 22,5 km/h (4 Bft)
02.06.2023 14:24 14,7 C 24,4 C 66 % 1020,4 hPa 0,0 l/m 13,3 km/h (3 Bft) N-NO 15 3 min 5,9 UV-I 863 W/m 8,4 C 11,4 C 19,3 km/h (3 Bft)
02.06.2023 14:27 14,7 C 25,6 C 65 % 1020,4 hPa 0,0 l/m 10,4 km/h (2 Bft) N-NW 340 3 min 5,8 UV-I 843 W/m 8,2 C 12,6 C 17,7 km/h (3 Bft)
02.06.2023 14:30 14,8 C 26,1 C 64 % 1020,4 hPa 0,0 l/m 12,8 km/h (3 Bft) N 350 3 min 5,9 UV-I 853 W/m 8,1 C 11,7 C 20,9 km/h (4 Bft)
02.06.2023 14:33 15,0 C 26,7 C 66 % 1020,6 hPa 0,0 l/m 13,3 km/h (3 Bft) N 355 3 min 5,9 UV-I 852 W/m 8,7 C 11,8 C 17,7 km/h (3 Bft)
02.06.2023 14:36 14,9 C 27,2 C 65 % 1020,5 hPa 0,0 l/m 15,0 km/h (3 Bft) N-NW 340 3 min 5,9 UV-I 854 W/m 8,4 C 11,1 C 20,9 km/h (4 Bft)
02.06.2023 14:39 14,9 C 27,2 C 64 % 1020,5 hPa 0,0 l/m 14,2 km/h (3 Bft) N-NO 15 3 min 5,8 UV-I 849 W/m 8,2 C 11,3 C 19,3 km/h (3 Bft)
02.06.2023 14:42 15,0 C 27,2 C 65 % 1020,5 hPa 0,0 l/m 14,6 km/h (3 Bft) N-NW 327 3 min 5,8 UV-I 852 W/m 8,5 C 11,3 C 20,9 km/h (4 Bft)
02.06.2023 14:45 15,0 C 26,7 C 61 % 1020,6 hPa 0,0 l/m 13,6 km/h (3 Bft) N-NO 13 3 min 5,8 UV-I 852 W/m 7,5 C 11,7 C 17,7 km/h (3 Bft)
02.06.2023 14:48 15,1 C 26,1 C 65 % 1020,6 hPa 0,0 l/m 12,2 km/h (2 Bft) N 351 3 min 5,8 UV-I 846 W/m 8,6 C 12,3 C 24,1 km/h (4 Bft)
02.06.2023 14:51 15,0 C 26,1 C 64 % 1020,6 hPa 0,0 l/m 10,1 km/h (2 Bft) N 5 3 min 5,8 UV-I 837 W/m 8,2 C 13,1 C 19,3 km/h (3 Bft)
02.06.2023 14:54 15,3 C 26,7 C 65 % 1020,6 hPa 0,0 l/m 11,4 km/h (2 Bft) N-NO 30 3 min 5,8 UV-I 840 W/m 8,8 C 12,9 C 19,3 km/h (3 Bft)
02.06.2023 14:57 15,6 C 26,7 C 64 % 1020,6 hPa 0,0 l/m 13,8 km/h (3 Bft) N 5 3 min 5,8 UV-I 840 W/m 8,8 C 12,3 C 20,9 km/h (4 Bft)
02.06.2023 15:00 15,6 C 26,7 C 65 % 1020,5 hPa 0,0 l/m 13,7 km/h (3 Bft) N-NO 22 3 min 5,7 UV-I 836 W/m 9,0 C 12,3 C 25,7 km/h (4 Bft)
02.06.2023 15:03 15,4 C 26,7 C 64 % 1020,6 hPa 0,0 l/m 13,1 km/h (3 Bft) N 5 3 min 5,7 UV-I 833 W/m 8,6 C 12,3 C 20,9 km/h (4 Bft)
02.06.2023 15:06 15,5 C 26,7 C 66 % 1020,6 hPa 0,0 l/m 11,5 km/h (2 Bft) N 5 3 min 5,7 UV-I 828 W/m 9,2 C 13,0 C 17,7 km/h (3 Bft)
02.06.2023 15:09 15,6 C 26,1 C 62 % 1020,6 hPa 0,0 l/m 9,5 km/h (2 Bft) N-NW 329 3 min 5,6 UV-I 827 W/m 8,3 C 14,0 C 25,7 km/h (4 Bft)
02.06.2023 15:12 15,5 C 24,4 C 63 % 1020,6 hPa 0,0 l/m 16,4 km/h (3 Bft) N 9 3 min 5,6 UV-I 821 W/m 8,5 C 11,4 C 25,7 km/h (4 Bft)
02.06.2023 15:15 15,6 C 25,0 C 64 % 1020,5 hPa 0,0 l/m 14,8 km/h (3 Bft) N-NO 30 3 min 5,6 UV-I 817 W/m 8,8 C 12,0 C 22,5 km/h (4 Bft)
02.06.2023 15:18 15,6 C 26,1 C 65 % 1020,5 hPa 0,0 l/m 13,5 km/h (3 Bft) N-NO 15 3 min 5,5 UV-I 813 W/m 9,0 C 12,4 C 20,9 km/h (4 Bft)
02.06.2023 15:21 15,4 C 25,6 C 62 % 1020,7 hPa 0,0 l/m 16,4 km/h (3 Bft) N-NW 344 3 min 5,5 UV-I 809 W/m 8,2 C 11,2 C 24,1 km/h (4 Bft)
02.06.2023 15:24 15,3 C 26,1 C 64 % 1020,7 hPa 0,0 l/m 13,5 km/h (3 Bft) N-NW 333 3 min 5,4 UV-I 808 W/m 8,5 C 12,1 C 19,3 km/h (3 Bft)
02.06.2023 15:27 15,1 C 25,0 C 64 % 1020,7 hPa 0,0 l/m 15,6 km/h (3 Bft) N 355 3 min 5,3 UV-I 798 W/m 8,3 C 11,1 C 27,4 km/h (4 Bft)
02.06.2023 15:30 15,4 C 26,1 C 65 % 1020,6 hPa 0,0 l/m 11,9 km/h (2 Bft) N-NW 343 3 min 5,3 UV-I 798 W/m 8,9 C 12,8 C 16,1 km/h (3 Bft)
02.06.2023 15:33 15,3 C 25,0 C 63 % 1020,6 hPa 0,0 l/m 14,2 km/h (3 Bft) N-NW 340 3 min 5,3 UV-I 795 W/m 8,3 C 11,8 C 20,9 km/h (4 Bft)
02.06.2023 15:36 15,3 C 26,1 C 63 % 1020,6 hPa 0,0 l/m 15,5 km/h (3 Bft) NW 318 3 min 5,3 UV-I 790 W/m 8,3 C 11,4 C 22,5 km/h (4 Bft)
02.06.2023 15:39 15,3 C 26,7 C 64 % 1020,5 hPa 0,0 l/m 11,7 km/h (2 Bft) N-NW 328 3 min 5,2 UV-I 788 W/m 8,5 C 12,7 C 22,5 km/h (4 Bft)
02.06.2023 15:42 15,4 C 26,7 C 63 % 1020,6 hPa 0,0 l/m 15,8 km/h (3 Bft) N 355 3 min 5,1 UV-I 781 W/m 8,4 C 11,4 C 25,7 km/h (4 Bft)
02.06.2023 15:45 15,3 C 26,1 C 62 % 1020,5 hPa 0,0 l/m 16,5 km/h (3 Bft) N-NW 347 3 min 5,1 UV-I 780 W/m 8,1 C 11,1 C 25,7 km/h (4 Bft)
02.06.2023 15:48 15,4 C 27,2 C 63 % 1020,6 hPa 0,0 l/m 14,3 km/h (3 Bft) N-NW 343 3 min 5,0 UV-I 772 W/m 8,4 C 11,9 C 20,9 km/h (4 Bft)
02.06.2023 15:51 15,4 C 26,7 C 63 % 1020,5 hPa 0,0 l/m 15,1 km/h (3 Bft) N-NO 17 3 min 5,0 UV-I 767 W/m 8,4 C 11,6 C 22,5 km/h (4 Bft)
02.06.2023 15:54 15,6 C 27,2 C 64 % 1020,5 hPa 0,0 l/m 12,7 km/h (3 Bft) N 355 3 min 4,9 UV-I 761 W/m 8,8 C 12,7 C 20,9 km/h (4 Bft)
02.06.2023 15:57 15,4 C 26,7 C 64 % 1020,4 hPa 0,0 l/m 13,4 km/h (3 Bft) N-NO 13 3 min 4,9 UV-I 759 W/m 8,6 C 12,2 C 20,9 km/h (4 Bft)
02.06.2023 16:00 15,6 C 26,7 C 64 % 1020,5 hPa 0,0 l/m 12,1 km/h (2 Bft) N-NO 25 3 min 4,8 UV-I 754 W/m 8,8 C 12,9 C 19,3 km/h (3 Bft)
02.06.2023 16:03 15,7 C 26,7 C 63 % 1020,5 hPa 0,0 l/m 15,4 km/h (3 Bft) N-NO 17 3 min 4,8 UV-I 750 W/m 8,7 C 11,9 C 22,5 km/h (4 Bft)
02.06.2023 16:07 15,6 C 27,2 C 63 % 1020,4 hPa 0,0 l/m 12,9 km/h (3 Bft) N-NO 21 4 min 4,7 UV-I 746 W/m 8,6 C 12,6 C 22,5 km/h (4 Bft)
02.06.2023 16:09 15,5 C 27,2 C 61 % 1020,6 hPa 0,0 l/m 18,9 km/h (3 Bft) N 355 2 min 4,7 UV-I 740 W/m 8,0 C 10,7 C 25,7 km/h (4 Bft)
02.06.2023 16:12 15,6 C 26,7 C 63 % 1020,6 hPa 0,0 l/m 14,0 km/h (3 Bft) N-NW 337 3 min 4,6 UV-I 732 W/m 8,6 C 12,2 C 22,5 km/h (4 Bft)
02.06.2023 16:15 15,4 C 26,7 C 64 % 1020,5 hPa 0,0 l/m 13,2 km/h (3 Bft) N 11 3 min 4,6 UV-I 729 W/m 8,6 C 12,3 C 17,7 km/h (3 Bft)
02.06.2023 16:18 15,4 C 26,1 C 62 % 1020,6 hPa 0,0 l/m 13,0 km/h (3 Bft) N-NO 30 3 min 4,5 UV-I 722 W/m 8,2 C 12,4 C 19,3 km/h (3 Bft)
02.06.2023 16:21 15,3 C 25,6 C 62 % 1020,5 hPa 0,0 l/m 13,9 km/h (3 Bft) N-NW 342 3 min 4,4 UV-I 712 W/m 8,1 C 11,9 C 19,3 km/h (3 Bft)
02.06.2023 16:24 15,6 C 26,1 C 62 % 1020,6 hPa 0,0 l/m 11,9 km/h (2 Bft) NW 326 3 min 4,4 UV-I 711 W/m 8,3 C 13,0 C 19,3 km/h (3 Bft)
02.06.2023 16:27 15,8 C 25,6 C 64 % 1020,6 hPa 0,0 l/m 12,3 km/h (3 Bft) N-NO 12 3 min 4,4 UV-I 707 W/m 9,0 C 13,1 C 22,5 km/h (4 Bft)
02.06.2023 16:30 15,9 C 25,6 C 62 % 1020,6 hPa 0,0 l/m 8,2 km/h (2 Bft) N 355 3 min 4,3 UV-I 698 W/m 8,6 C 14,9 C 14,5 km/h (3 Bft)
02.06.2023 16:33 15,7 C 25,0 C 61 % 1020,6 hPa 0,0 l/m 16,0 km/h (3 Bft) N 350 3 min 4,2 UV-I 695 W/m 8,2 C 11,7 C 24,1 km/h (4 Bft)
02.06.2023 16:36 15,4 C 26,1 C 61 % 1020,6 hPa 0,0 l/m 15,3 km/h (3 Bft) N 355 3 min 4,2 UV-I 688 W/m 7,9 C 11,6 C 24,1 km/h (4 Bft)
02.06.2023 16:39 15,5 C 25,6 C 61 % 1020,6 hPa 0,0 l/m 9,9 km/h (2 Bft) N 351 3 min 4,1 UV-I 682 W/m 8,0 C 13,7 C 16,1 km/h (3 Bft)
02.06.2023 16:42 16,1 C 25,6 C 63 % 1020,5 hPa 0,0 l/m 8,6 km/h (2 Bft) NW 324 3 min 4,0 UV-I 673 W/m 9,1 C 15,0 C 19,3 km/h (3 Bft)
02.06.2023 16:45 15,8 C 26,1 C 62 % 1020,6 hPa 0,0 l/m 17,4 km/h (3 Bft) N 355 3 min 4,0 UV-I 669 W/m 8,5 C 11,5 C 25,7 km/h (4 Bft)
02.06.2023 16:48 15,7 C 26,7 C 62 % 1020,5 hPa 0,0 l/m 13,4 km/h (3 Bft) N-NO 13 3 min 3,9 UV-I 661 W/m 8,4 C 12,6 C 20,9 km/h (4 Bft)
02.06.2023 16:51 15,6 C 25,0 C 61 % 1020,4 hPa 0,0 l/m 15,0 km/h (3 Bft) N 5 3 min 3,9 UV-I 655 W/m 8,1 C 11,9 C 20,9 km/h (4 Bft)
02.06.2023 16:54 15,6 C 25,6 C 62 % 1020,5 hPa 0,0 l/m 13,2 km/h (3 Bft) N 355 3 min 3,8 UV-I 648 W/m 8,3 C 12,5 C 24,1 km/h (4 Bft)
02.06.2023 16:57 15,3 C 25,6 C 62 % 1020,5 hPa 0,0 l/m 19,2 km/h (3 Bft) N 355 3 min 3,7 UV-I 644 W/m 8,1 C 10,3 C 25,7 km/h (4 Bft)
02.06.2023 17:00 15,3 C 25,6 C 62 % 1020,5 hPa 0,0 l/m 15,1 km/h (3 Bft) N-NW 333 3 min 3,7 UV-I 635 W/m 8,1 C 11,5 C 22,5 km/h (4 Bft)
02.06.2023 17:03 15,5 C 25,6 C 63 % 1020,4 hPa 0,0 l/m 12,7 km/h (3 Bft) N-NW 331 3 min 3,6 UV-I 630 W/m 8,5 C 12,6 C 19,3 km/h (3 Bft)
02.06.2023 17:06 15,4 C 25,6 C 62 % 1020,5 hPa 0,0 l/m 12,7 km/h (3 Bft) N-NO 17 3 min 3,5 UV-I 622 W/m 8,2 C 12,5 C 17,7 km/h (3 Bft)
02.06.2023 17:09 15,4 C 25,0 C 61 % 1020,4 hPa 0,0 l/m 16,6 km/h (3 Bft) N 5 3 min 3,5 UV-I 616 W/m 7,9 C 11,2 C 25,7 km/h (4 Bft)
02.06.2023 17:12 15,4 C 24,4 C 61 % 1020,4 hPa 0,0 l/m 15,7 km/h (3 Bft) N-NO 25 3 min 3,4 UV-I 611 W/m 7,9 C 11,5 C 22,5 km/h (4 Bft)
02.06.2023 17:15 15,6 C 24,4 C 63 % 1020,3 hPa 0,0 l/m 12,0 km/h (2 Bft) N 5 3 min 3,4 UV-I 604 W/m 8,6 C 13,0 C 19,3 km/h (3 Bft)
02.06.2023 17:18 15,6 C 24,4 C 61 % 1020,4 hPa 0,0 l/m 16,4 km/h (3 Bft) N 10 3 min 3,3 UV-I 597 W/m 8,1 C 11,5 C 20,9 km/h (4 Bft)
02.06.2023 17:21 15,6 C 24,4 C 62 % 1020,3 hPa 0,0 l/m 15,3 km/h (3 Bft) N 355 3 min 3,2 UV-I 588 W/m 8,3 C 11,8 C 25,7 km/h (4 Bft)
02.06.2023 17:24 15,6 C 23,9 C 60 % 1020,4 hPa 0,0 l/m 16,2 km/h (3 Bft) N 350 3 min 3,1 UV-I 579 W/m 7,9 C 11,5 C 24,1 km/h (4 Bft)
02.06.2023 17:27 15,6 C 23,9 C 62 % 1020,4 hPa 0,0 l/m 11,8 km/h (2 Bft) N-NO 12 3 min 3,1 UV-I 570 W/m 8,3 C 13,0 C 19,3 km/h (3 Bft)
02.06.2023 17:30 15,4 C 22,8 C 62 % 1020,3 hPa 0,0 l/m 12,9 km/h (3 Bft) N-NW 340 3 min 3,0 UV-I 563 W/m 8,2 C 12,4 C 19,3 km/h (3 Bft)
02.06.2023 17:33 15,6 C 22,2 C 62 % 1020,3 hPa 0,0 l/m 13,9 km/h (3 Bft) N 350 3 min 3,0 UV-I 557 W/m 8,3 C 12,3 C 20,9 km/h (4 Bft)
02.06.2023 17:36 15,4 C 22,2 C 60 % 1020,4 hPa 0,0 l/m 17,3 km/h (3 Bft) N 355 3 min 2,9 UV-I 546 W/m 7,7 C 11,0 C 24,1 km/h (4 Bft)
02.06.2023 17:39 15,4 C 22,2 C 62 % 1020,4 hPa 0,0 l/m 15,2 km/h (3 Bft) N 350 3 min 2,8 UV-I 538 W/m 8,2 C 11,6 C 22,5 km/h (4 Bft)
02.06.2023 17:42 15,3 C 22,2 C 61 % 1020,4 hPa 0,0 l/m 15,9 km/h (3 Bft) N 5 3 min 2,8 UV-I 534 W/m 7,8 C 11,3 C 24,1 km/h (4 Bft)
02.06.2023 17:45 15,2 C 21,7 C 61 % 1020,3 hPa 0,0 l/m 14,9 km/h (3 Bft) NW 319 3 min 2,7 UV-I 526 W/m 7,7 C 11,5 C 22,5 km/h (4 Bft)
02.06.2023 17:48 15,2 C 21,7 C 62 % 1020,4 hPa 0,0 l/m 11,5 km/h (2 Bft) N 351 3 min 2,6 UV-I 517 W/m 8,0 C 12,7 C 20,9 km/h (4 Bft)
02.06.2023 17:51 15,4 C 22,8 C 62 % 1020,3 hPa 0,0 l/m 10,0 km/h (2 Bft) N-NW 338 3 min 2,6 UV-I 510 W/m 8,2 C 13,6 C 20,9 km/h (4 Bft)
02.06.2023 17:54 15,3 C 22,2 C 60 % 1020,3 hPa 0,0 l/m 16,9 km/h (3 Bft) N 5 3 min 2,5 UV-I 503 W/m 7,6 C 11,0 C 25,7 km/h (4 Bft)
02.06.2023 17:57 15,3 C 22,2 C 62 % 1020,2 hPa 0,0 l/m 14,9 km/h (3 Bft) N-NW 345 3 min 2,5 UV-I 492 W/m 8,1 C 11,6 C 22,5 km/h (4 Bft)
02.06.2023 18:00 15,3 C 21,7 C 60 % 1020,2 hPa 0,0 l/m 15,7 km/h (3 Bft) N 355 3 min 2,4 UV-I 486 W/m 7,6 C 11,3 C 24,1 km/h (4 Bft)
02.06.2023 18:03 15,3 C 21,1 C 60 % 1020,2 hPa 0,0 l/m 18,0 km/h (3 Bft) N-NO 14 3 min 2,4 UV-I 478 W/m 7,6 C 10,7 C 25,7 km/h (4 Bft)
02.06.2023 18:06 15,4 C 20,6 C 62 % 1020,2 hPa 0,0 l/m 15,3 km/h (3 Bft) N-NO 13 3 min 2,3 UV-I 472 W/m 8,2 C 11,6 C 25,7 km/h (4 Bft)
02.06.2023 18:09 15,3 C 20,6 C 61 % 1020,1 hPa 0,0 l/m 14,3 km/h (3 Bft) N-NO 19 3 min 2,2 UV-I 464 W/m 7,8 C 11,8 C 20,9 km/h (4 Bft)
02.06.2023 18:12 15,4 C 20,6 C 62 % 1020,1 hPa 0,0 l/m 11,7 km/h (2 Bft) N-NO 21 3 min 2,2 UV-I 455 W/m 8,2 C 12,8 C 19,3 km/h (3 Bft)
02.06.2023 18:15 15,3 C 21,1 C 62 % 1020,0 hPa 0,0 l/m 15,3 km/h (3 Bft) N 5 3 min 2,1 UV-I 445 W/m 8,1 C 11,5 C 22,5 km/h (4 Bft)
02.06.2023 18:18 15,3 C 20,6 C 62 % 1019,9 hPa 0,0 l/m 16,2 km/h (3 Bft) N-NO 26 3 min 2,1 UV-I 436 W/m 8,1 C 11,2 C 22,5 km/h (4 Bft)
02.06.2023 18:21 15,1 C 20,6 C 62 % 1020,0 hPa 0,0 l/m 15,7 km/h (3 Bft) N-NW 337 3 min 2,0 UV-I 429 W/m 7,9 C 11,1 C 25,7 km/h (4 Bft)
02.06.2023 18:24 15,2 C 20,0 C 62 % 1019,9 hPa 0,0 l/m 14,4 km/h (3 Bft) N-NW 343 3 min 2,0 UV-I 422 W/m 8,0 C 11,6 C 20,9 km/h (4 Bft)
02.06.2023 18:27 15,2 C 20,0 C 62 % 1019,9 hPa 0,0 l/m 14,9 km/h (3 Bft) N-NW 344 3 min 1,9 UV-I 417 W/m 8,0 C 11,5 C 22,5 km/h (4 Bft)
02.06.2023 18:30 15,1 C 18,3 C 62 % 1019,8 hPa 0,0 l/m 13,0 km/h (3 Bft) N 355 3 min 1,9 UV-I 409 W/m 7,9 C 12,0 C 19,3 km/h (3 Bft)
02.06.2023 18:33 15,2 C 17,8 C 61 % 1019,9 hPa 0,0 l/m 17,7 km/h (3 Bft) NO 35 3 min 1,8 UV-I 401 W/m 7,7 C 10,6 C 24,1 km/h (4 Bft)
02.06.2023 18:36 15,2 C 17,2 C 61 % 1019,8 hPa 0,0 l/m 14,8 km/h (3 Bft) N 5 3 min 1,7 UV-I 390 W/m 7,7 C 11,5 C 24,1 km/h (4 Bft)
02.06.2023 18:39 15,2 C 16,7 C 61 % 1019,9 hPa 0,0 l/m 14,5 km/h (3 Bft) N 355 3 min 1,7 UV-I 381 W/m 7,7 C 11,6 C 24,1 km/h (4 Bft)
02.06.2023 18:42 15,1 C 16,7 C 61 % 1019,9 hPa 0,0 l/m 16,4 km/h (3 Bft) N-NO 28 3 min 1,6 UV-I 374 W/m 7,6 C 10,9 C 24,1 km/h (4 Bft)
02.06.2023 18:45 15,2 C 16,1 C 61 % 1019,8 hPa 0,0 l/m 14,2 km/h (3 Bft) N 11 3 min 1,6 UV-I 367 W/m 7,7 C 11,7 C 20,9 km/h (4 Bft)
02.06.2023 18:48 15,2 C 16,1 C 60 % 1019,8 hPa 0,0 l/m 13,3 km/h (3 Bft) N 349 3 min 1,5 UV-I 357 W/m 7,5 C 12,0 C 19,3 km/h (3 Bft)
02.06.2023 18:51 15,2 C 16,1 C 61 % 1019,9 hPa 0,0 l/m 16,4 km/h (3 Bft) N 5 3 min 1,5 UV-I 350 W/m 7,7 C 11,0 C 25,7 km/h (4 Bft)
02.06.2023 18:54 15,1 C 16,1 C 61 % 1019,9 hPa 0,0 l/m 16,2 km/h (3 Bft) N 360 3 min 1,4 UV-I 343 W/m 7,6 C 10,9 C 22,5 km/h (4 Bft)
02.06.2023 18:57 15,1 C 16,7 C 61 % 1019,8 hPa 0,0 l/m 12,3 km/h (3 Bft) N-NW 347 3 min 1,4 UV-I 335 W/m 7,6 C 12,3 C 20,9 km/h (4 Bft)
02.06.2023 19:00 15,1 C 16,7 C 61 % 1019,8 hPa 0,0 l/m 12,2 km/h (2 Bft) N-NW 346 3 min 1,3 UV-I 327 W/m 7,6 C 12,3 C 20,9 km/h (4 Bft)
02.06.2023 19:03 15,2 C 16,1 C 60 % 1019,8 hPa 0,0 l/m 13,4 km/h (3 Bft) N-NO 26 3 min 1,3 UV-I 320 W/m 7,5 C 12,0 C 22,5 km/h (4 Bft)
02.06.2023 19:06 15,1 C 16,1 C 61 % 1019,8 hPa 0,0 l/m 12,7 km/h (3 Bft) N 360 3 min 1,3 UV-I 310 W/m 7,6 C 12,1 C 20,9 km/h (4 Bft)
02.06.2023 19:09 15,2 C 16,1 C 61 % 1019,9 hPa 0,0 l/m 8,7 km/h (2 Bft) N-NO 23 3 min 1,2 UV-I 303 W/m 7,7 C 14,0 C 17,7 km/h (3 Bft)
02.06.2023 19:12 15,3 C 16,1 C 61 % 1019,9 hPa 0,0 l/m 9,1 km/h (2 Bft) N 5 3 min 1,2 UV-I 292 W/m 7,8 C 13,9 C 16,1 km/h (3 Bft)
02.06.2023 19:15 15,2 C 16,1 C 61 % 1019,9 hPa 0,0 l/m 12,5 km/h (3 Bft) N 11 3 min 1,1 UV-I 284 W/m 7,7 C 12,3 C 20,9 km/h (4 Bft)
02.06.2023 19:18 15,1 C 15,6 C 60 % 1019,9 hPa 0,0 l/m 13,3 km/h (3 Bft) NO 45 3 min 1,1 UV-I 278 W/m 7,4 C 11,9 C 20,9 km/h (4 Bft)
02.06.2023 19:21 15,1 C 15,6 C 60 % 1019,9 hPa 0,0 l/m 14,3 km/h (3 Bft) N-NW 347 3 min 1,0 UV-I 271 W/m 7,4 C 11,5 C 22,5 km/h (4 Bft)
02.06.2023 19:24 15,0 C 15,0 C 60 % 1020,0 hPa 0,0 l/m 15,8 km/h (3 Bft) N 349 3 min 1,0 UV-I 261 W/m 7,3 C 10,9 C 24,1 km/h (4 Bft)
02.06.2023 19:27 14,9 C 15,0 C 60 % 1019,9 hPa 0,0 l/m 13,2 km/h (3 Bft) N-NO 13 3 min 1,0 UV-I 254 W/m 7,2 C 11,7 C 17,7 km/h (3 Bft)
02.06.2023 19:30 15,0 C 15,0 C 61 % 1020,0 hPa 0,0 l/m 11,0 km/h (2 Bft) N 349 3 min 0,9 UV-I 246 W/m 7,5 C 12,7 C 17,7 km/h (3 Bft)
02.06.2023 19:33 14,9 C 14,4 C 60 % 1020,0 hPa 0,0 l/m 17,3 km/h (3 Bft) N-NO 22 3 min 0,9 UV-I 238 W/m 7,2 C 10,4 C 24,1 km/h (4 Bft)
02.06.2023 19:36 14,8 C 14,4 C 61 % 1019,9 hPa 0,0 l/m 15,3 km/h (3 Bft) N 355 3 min 0,8 UV-I 230 W/m 7,4 C 10,9 C 24,1 km/h (4 Bft)
02.06.2023 19:39 14,8 C 14,4 C 61 % 1019,9 hPa 0,0 l/m 11,8 km/h (2 Bft) N-NO 32 3 min 0,8 UV-I 221 W/m 7,4 C 12,1 C 19,3 km/h (3 Bft)
02.06.2023 19:42 14,8 C 14,4 C 61 % 1019,9 hPa 0,0 l/m 12,9 km/h (3 Bft) N-NO 17 3 min 0,8 UV-I 213 W/m 7,4 C 11,7 C 19,3 km/h (3 Bft)
02.06.2023 19:45 14,8 C 13,9 C 61 % 1019,9 hPa 0,0 l/m 14,7 km/h (3 Bft) N 11 3 min 0,7 UV-I 203 W/m 7,4 C 11,1 C 19,3 km/h (3 Bft)
02.06.2023 19:48 14,7 C 13,9 C 61 % 1020,0 hPa 0,0 l/m 14,0 km/h (3 Bft) N-NW 348 3 min 0,7 UV-I 193 W/m 7,3 C 11,2 C 22,5 km/h (4 Bft)
02.06.2023 19:51 14,7 C 13,9 C 62 % 1020,0 hPa 0,0 l/m 14,6 km/h (3 Bft) N-NO 26 3 min 0,6 UV-I 185 W/m 7,5 C 11,0 C 22,5 km/h (4 Bft)
02.06.2023 19:54 14,6 C 13,9 C 63 % 1020,0 hPa 0,0 l/m 8,9 km/h (2 Bft) N 351 3 min 0,6 UV-I 175 W/m 7,6 C 13,2 C 17,7 km/h (3 Bft)
02.06.2023 19:57 14,6 C 13,9 C 63 % 1019,9 hPa 0,0 l/m 11,9 km/h (2 Bft) N-NO 14 3 min 0,6 UV-I 166 W/m 7,6 C 11,9 C 16,1 km/h (3 Bft)
02.06.2023 20:00 14,5 C 13,3 C 64 % 1020,0 hPa 0,0 l/m 11,8 km/h (2 Bft) N 360 3 min 0,6 UV-I 156 W/m 7,8 C 11,8 C 20,9 km/h (4 Bft)
02.06.2023 20:03 14,4 C 13,3 C 64 % 1020,0 hPa 0,0 l/m 10,3 km/h (2 Bft) N 360 3 min 0,5 UV-I 148 W/m 7,7 C 12,3 C 20,9 km/h (4 Bft)
02.06.2023 20:06 14,4 C 13,3 C 64 % 1020,0 hPa 0,0 l/m 14,2 km/h (3 Bft) N 360 3 min 0,5 UV-I 139 W/m 7,7 C 10,7 C 22,5 km/h (4 Bft)
02.06.2023 20:09 14,3 C 13,3 C 65 % 1020,0 hPa 0,0 l/m 11,6 km/h (2 Bft) N-NO 15 3 min 0,2 UV-I 130 W/m 7,8 C 11,6 C 20,9 km/h (4 Bft)
02.06.2023 20:12 14,2 C 12,8 C 65 % 1020,0 hPa 0,0 l/m 13,5 km/h (3 Bft) N 5 3 min 0,0 UV-I 122 W/m 7,7 C 10,8 C 19,3 km/h (3 Bft)
02.06.2023 20:15 14,2 C 12,8 C 66 % 1020,0 hPa 0,0 l/m 12,8 km/h (3 Bft) N-NO 22 3 min 0,0 UV-I 114 W/m 7,9 C 11,0 C 20,9 km/h (4 Bft)
02.06.2023 20:18 14,2 C 12,8 C 66 % 1020,0 hPa 0,0 l/m 11,7 km/h (2 Bft) N 5 3 min 0,0 UV-I 106 W/m 7,9 C 11,5 C 19,3 km/h (3 Bft)
02.06.2023 20:21 14,1 C 12,8 C 67 % 1020,0 hPa 0,0 l/m 10,6 km/h (2 Bft) N-NW 348 3 min 0,0 UV-I 98 W/m 8,1 C 11,8 C 16,1 km/h (3 Bft)
02.06.2023 20:24 14,0 C 12,8 C 67 % 1020,0 hPa 0,0 l/m 13,1 km/h (3 Bft) N 355 3 min 0,0 UV-I 91 W/m 8,0 C 10,7 C 19,3 km/h (3 Bft)
02.06.2023 20:27 13,9 C 12,8 C 67 % 1020,0 hPa 0,0 l/m 11,0 km/h (2 Bft) N-NO 22 0 min 0,0 UV-I 69 W/m 7,9 C 11,4 C 19,3 km/h (3 Bft)
02.06.2023 20:30 13,8 C 12,8 C 68 % 1020,0 hPa 0,0 l/m 12,9 km/h (3 Bft) N-NO 14 0 min 0,0 UV-I 41 W/m 8,0 C 10,5 C 22,5 km/h (4 Bft)
02.06.2023 20:33 13,7 C 12,2 C 69 % 1020,2 hPa 0,0 l/m 8,2 km/h (2 Bft) N 5 0 min 0,0 UV-I 38 W/m 8,1 C 12,6 C 19,3 km/h (3 Bft)
02.06.2023 20:36 13,6 C 11,7 C 69 % 1020,2 hPa 0,0 l/m 8,9 km/h (2 Bft) N 10 0 min 0,0 UV-I 36 W/m 8,0 C 12,1 C 16,1 km/h (3 Bft)
02.06.2023 20:39 13,5 C 12,2 C 69 % 1020,1 hPa 0,0 l/m 10,0 km/h (2 Bft) N-NW 337 0 min 0,0 UV-I 34 W/m 7,9 C 11,5 C 16,1 km/h (3 Bft)
02.06.2023 20:42 13,4 C 11,7 C 70 % 1020,1 hPa 0,0 l/m 10,5 km/h (2 Bft) N 350 0 min 0,0 UV-I 33 W/m 8,0 C 11,1 C 24,1 km/h (4 Bft)
02.06.2023 20:45 13,4 C 12,2 C 70 % 1020,1 hPa 0,0 l/m 12,3 km/h (3 Bft) N 9 0 min 0,0 UV-I 32 W/m 8,0 C 10,3 C 19,3 km/h (3 Bft)
02.06.2023 20:48 13,3 C 11,7 C 71 % 1020,2 hPa 0,0 l/m 9,5 km/h (2 Bft) N-NO 28 0 min 0,0 UV-I 30 W/m 8,2 C 11,5 C 17,7 km/h (3 Bft)
02.06.2023 20:51 13,3 C 11,7 C 70 % 1020,2 hPa 0,0 l/m 14,3 km/h (3 Bft) N 5 0 min 0,0 UV-I 28 W/m 7,9 C 9,4 C 19,3 km/h (3 Bft)
02.06.2023 20:54 13,2 C 11,7 C 71 % 1020,2 hPa 0,0 l/m 10,0 km/h (2 Bft) N 5 0 min 0,0 UV-I 26 W/m 8,1 C 11,1 C 16,1 km/h (3 Bft)
02.06.2023 20:57 13,1 C 11,7 C 71 % 1020,1 hPa 0,0 l/m 12,6 km/h (3 Bft) N-NO 28 0 min 0,0 UV-I 25 W/m 8,0 C 9,8 C 19,3 km/h (3 Bft)
02.06.2023 21:00 13,1 C 11,7 C 71 % 1020,2 hPa 0,0 l/m 12,4 km/h (3 Bft) N-NW 336 0 min 0,0 UV-I 24 W/m 8,0 C 9,9 C 19,3 km/h (3 Bft)
02.06.2023 21:03 13,0 C 11,7 C 72 % 1020,2 hPa 0,0 l/m 12,1 km/h (2 Bft) N-NO 17 0 min 0,0 UV-I 22 W/m 8,1 C 9,9 C 17,7 km/h (3 Bft)
02.06.2023 21:06 12,9 C 11,1 C 72 % 1020,2 hPa 0,0 l/m 10,0 km/h (2 Bft) N-NW 336 0 min 0,0 UV-I 20 W/m 8,0 C 10,8 C 20,9 km/h (4 Bft)
02.06.2023 21:09 12,8 C 11,1 C 72 % 1020,3 hPa 0,0 l/m 10,3 km/h (2 Bft) N-NO 22 0 min 0,0 UV-I 19 W/m 7,9 C 10,5 C 16,1 km/h (3 Bft)
02.06.2023 21:12 12,7 C 11,1 C 73 % 1020,1 hPa 0,0 l/m 7,8 km/h (2 Bft) N-NW 345 0 min 0,0 UV-I 17 W/m 8,0 C 11,8 C 14,5 km/h (3 Bft)
02.06.2023 21:15 12,4 C 10,6 C 73 % 1020,1 hPa 0,0 l/m 7,8 km/h (2 Bft) N 5 0 min 0,0 UV-I 15 W/m 7,7 C 11,5 C 14,5 km/h (3 Bft)
02.06.2023 21:18 12,4 C 10,6 C 74 % 1020,1 hPa 0,0 l/m 9,9 km/h (2 Bft) N 11 0 min 0,0 UV-I 13 W/m 7,9 C 10,3 C 14,5 km/h (3 Bft)
02.06.2023 21:21 12,3 C 10,6 C 74 % 1020,1 hPa 0,0 l/m 8,7 km/h (2 Bft) N 5 0 min 0,0 UV-I 12 W/m 7,8 C 10,8 C 16,1 km/h (3 Bft)
02.06.2023 21:24 12,3 C 10,6 C 74 % 1020,2 hPa 0,0 l/m 8,7 km/h (2 Bft) N 9 0 min 0,0 UV-I 11 W/m 7,8 C 10,8 C 16,1 km/h (3 Bft)
02.06.2023 21:27 12,1 C 10,0 C 75 % 1020,2 hPa 0,0 l/m 6,7 km/h (2 Bft) N 11 0 min 0,0 UV-I 9 W/m 7,8 C 11,9 C 14,5 km/h (3 Bft)
02.06.2023 21:30 11,9 C 10,0 C 75 % 1020,2 hPa 0,0 l/m 7,1 km/h (2 Bft) N 5 0 min 0,0 UV-I 7 W/m 7,6 C 11,4 C 12,9 km/h (3 Bft)
02.06.2023 21:33 11,9 C 9,4 C 76 % 1020,2 hPa 0,0 l/m 8,1 km/h (2 Bft) N-NW 348 0 min 0,0 UV-I 6 W/m 7,8 C 10,8 C 12,9 km/h (3 Bft)
02.06.2023 21:37 11,8 C 9,4 C 76 % 1020,4 hPa 0,0 l/m 7,7 km/h (2 Bft) N-NW 343 0 min 0,0 UV-I 5 W/m 7,7 C 10,9 C 12,9 km/h (3 Bft)
02.06.2023 21:39 11,8 C 9,4 C 76 % 1020,3 hPa 0,0 l/m 6,8 km/h (2 Bft) N 355 0 min 0,0 UV-I 0 W/m 7,7 C 11,5 C 11,3 km/h (2 Bft)
02.06.2023 21:42 11,7 C 9,4 C 76 % 1020,4 hPa 0,0 l/m 6,9 km/h (2 Bft) N-NO 14 0 min 0,0 UV-I 0 W/m 7,6 C 11,4 C 11,3 km/h (2 Bft)
02.06.2023 21:45 11,6 C 8,9 C 76 % 1020,2 hPa 0,0 l/m 7,0 km/h (2 Bft) N 360 0 min 0,0 UV-I 0 W/m 7,5 C 11,2 C 12,9 km/h (3 Bft)
02.06.2023 21:48 11,6 C 8,9 C 76 % 1020,4 hPa 0,0 l/m 8,6 km/h (2 Bft) N 360 0 min 0,0 UV-I 0 W/m 7,5 C 10,2 C 14,5 km/h (3 Bft)
02.06.2023 21:51 11,6 C 8,9 C 76 % 1020,4 hPa 0,0 l/m 8,4 km/h (2 Bft) N 360 0 min 0,0 UV-I 0 W/m 7,5 C 10,3 C 14,5 km/h (3 Bft)
02.06.2023 21:54 11,5 C 8,9 C 77 % 1020,4 hPa 0,0 l/m 10,6 km/h (2 Bft) N 355 0 min 0,0 UV-I 0 W/m 7,6 C 8,9 C 16,1 km/h (3 Bft)
02.06.2023 21:57 11,5 C 8,9 C 77 % 1020,3 hPa 0,0 l/m 10,0 km/h (2 Bft) N 360 0 min 0,0 UV-I 0 W/m 7,6 C 9,3 C 16,1 km/h (3 Bft)
02.06.2023 22:00 11,6 C 9,4 C 76 % 1020,3 hPa 0,0 l/m 10,4 km/h (2 Bft) N-NO 14 0 min 0,0 UV-I 0 W/m 7,5 C 9,1 C 16,1 km/h (3 Bft)
02.06.2023 22:03 11,5 C 9,4 C 76 % 1020,3 hPa 0,0 l/m 8,8 km/h (2 Bft) N 10 0 min 0,0 UV-I 0 W/m 7,4 C 9,9 C 14,5 km/h (3 Bft)
02.06.2023 22:06 11,4 C 8,9 C 77 % 1020,4 hPa 0,0 l/m 8,5 km/h (2 Bft) N-NO 19 0 min 0,0 UV-I 0 W/m 7,5 C 10,0 C 12,9 km/h (3 Bft)
02.06.2023 22:09 11,3 C 8,9 C 77 % 1020,4 hPa 0,0 l/m 7,9 km/h (2 Bft) N 355 0 min 0,0 UV-I 0 W/m 7,4 C 10,3 C 14,5 km/h (3 Bft)
02.06.2023 22:12 11,3 C 8,9 C 77 % 1020,4 hPa 0,0 l/m 9,8 km/h (2 Bft) N-NO 21 0 min 0,0 UV-I 0 W/m 7,4 C 9,1 C 16,1 km/h (3 Bft)
02.06.2023 22:15 11,3 C 8,9 C 77 % 1020,4 hPa 0,0 l/m 10,4 km/h (2 Bft) N 9 0 min 0,0 UV-I 0 W/m 7,4 C 8,8 C 16,1 km/h (3 Bft)
02.06.2023 22:18 11,3 C 8,9 C 77 % 1020,3 hPa 0,0 l/m 10,6 km/h (2 Bft) N 355 0 min 0,0 UV-I 0 W/m 7,4 C 8,7 C 16,1 km/h (3 Bft)
02.06.2023 22:21 11,1 C 8,9 C 77 % 1020,3 hPa 0,0 l/m 8,0 km/h (2 Bft) N 5 0 min 0,0 UV-I 0 W/m 7,2 C 10,0 C 12,9 km/h (3 Bft)
02.06.2023 22:24 11,1 C 8,9 C 78 % 1020,4 hPa 0,0 l/m 11,4 km/h (2 Bft) N 349 0 min 0,0 UV-I 0 W/m 7,4 C 8,1 C 20,9 km/h (4 Bft)
02.06.2023 22:27 11,1 C 8,9 C 77 % 1020,4 hPa 0,0 l/m 11,0 km/h (2 Bft) N 355 0 min 0,0 UV-I 0 W/m 7,2 C 8,3 C 17,7 km/h (3 Bft)
02.06.2023 22:30 11,0 C 8,9 C 77 % 1020,4 hPa 0,0 l/m 8,9 km/h (2 Bft) N 360 0 min 0,0 UV-I 0 W/m 7,1 C 9,3 C 19,3 km/h (3 Bft)
02.06.2023 22:33 10,9 C 8,9 C 78 % 1020,4 hPa 0,0 l/m 12,1 km/h (2 Bft) N 360 0 min 0,0 UV-I 0 W/m 7,2 C 7,5 C 17,7 km/h (3 Bft)
02.06.2023 22:37 11,1 C 8,9 C 77 % 1020,5 hPa 0,0 l/m 10,7 km/h (2 Bft) N-NO 24 0 min 0,0 UV-I 0 W/m 7,2 C 8,4 C 20,9 km/h (4 Bft)
02.06.2023 22:39 11,2 C 9,4 C 77 % 1020,4 hPa 0,0 l/m 12,1 km/h (2 Bft) N 360 0 min 0,0 UV-I 0 W/m 7,3 C 7,8 C 20,9 km/h (4 Bft)
02.06.2023 22:42 11,2 C 9,4 C 77 % 1020,5 hPa 0,0 l/m 10,8 km/h (2 Bft) N-NO 24 0 min 0,0 UV-I 0 W/m 7,3 C 8,5 C 16,1 km/h (3 Bft)
02.06.2023 22:45 11,2 C 9,4 C 77 % 1020,5 hPa 0,0 l/m 11,1 km/h (2 Bft) N 355 0 min 0,0 UV-I 0 W/m 7,3 C 8,3 C 20,9 km/h (4 Bft)
02.06.2023 22:48 11,2 C 9,4 C 77 % 1020,6 hPa 0,0 l/m 13,1 km/h (3 Bft) N 5 0 min 0,0 UV-I 0 W/m 7,3 C 7,4 C 22,5 km/h (4 Bft)
02.06.2023 22:51 11,2 C 9,4 C 76 % 1020,5 hPa 0,0 l/m 11,6 km/h (2 Bft) N 11 0 min 0,0 UV-I 0 W/m 7,1 C 8,1 C 20,9 km/h (4 Bft)
02.06.2023 22:54 11,1 C 8,9 C 76 % 1020,5 hPa 0,0 l/m 8,9 km/h (2 Bft) N-NO 22 0 min 0,0 UV-I 0 W/m 7,0 C 9,4 C 17,7 km/h (3 Bft)
02.06.2023 22:57 11,1 C 8,9 C 76 % 1020,6 hPa 0,0 l/m 13,2 km/h (3 Bft) N 5 0 min 0,0 UV-I 0 W/m 7,0 C 7,2 C 22,5 km/h (4 Bft)
02.06.2023 23:00 11,2 C 8,9 C 76 % 1020,6 hPa 0,0 l/m 12,3 km/h (3 Bft) N 5 0 min 0,0 UV-I 0 W/m 7,1 C 7,8 C 22,5 km/h (4 Bft)
02.06.2023 23:03 11,1 C 8,9 C 76 % 1020,6 hPa 0,0 l/m 14,6 km/h (3 Bft) N 360 0 min 0,0 UV-I 0 W/m 7,0 C 6,6 C 22,5 km/h (4 Bft)
02.06.2023 23:06 11,2 C 8,9 C 76 % 1020,6 hPa 0,0 l/m 12,0 km/h (2 Bft) N 5 0 min 0,0 UV-I 0 W/m 7,1 C 7,9 C 20,9 km/h (4 Bft)
02.06.2023 23:09 11,1 C 8,9 C 76 % 1020,7 hPa 0,0 l/m 11,3 km/h (2 Bft) N 5 0 min 0,0 UV-I 0 W/m 7,0 C 8,1 C 22,5 km/h (4 Bft)
02.06.2023 23:12 11,1 C 8,9 C 76 % 1020,7 hPa 0,0 l/m 9,4 km/h (2 Bft) N 360 0 min 0,0 UV-I 0 W/m 7,0 C 9,1 C 17,7 km/h (3 Bft)
02.06.2023 23:15 11,0 C 8,9 C 76 % 1020,6 hPa 0,0 l/m 10,4 km/h (2 Bft) N-NO 17 0 min 0,0 UV-I 0 W/m 6,9 C 8,5 C 19,3 km/h (3 Bft)
02.06.2023 23:18 10,9 C 8,9 C 76 % 1020,7 hPa 0,0 l/m 10,7 km/h (2 Bft) N-NO 26 0 min 0,0 UV-I 0 W/m 6,8 C 8,2 C 20,9 km/h (4 Bft)
02.06.2023 23:21 11,0 C 8,9 C 76 % 1020,7 hPa 0,0 l/m 12,7 km/h (3 Bft) N-NO 24 0 min 0,0 UV-I 0 W/m 6,9 C 7,3 C 20,9 km/h (4 Bft)
02.06.2023 23:24 11,1 C 9,4 C 76 % 1020,7 hPa 0,0 l/m 14,5 km/h (3 Bft) N 360 0 min 0,0 UV-I 0 W/m 7,0 C 6,7 C 20,9 km/h (4 Bft)
02.06.2023 23:27 11,1 C 9,4 C 76 % 1020,7 hPa 0,0 l/m 10,6 km/h (2 Bft) N-NO 24 0 min 0,0 UV-I 0 W/m 7,0 C 8,5 C 16,1 km/h (3 Bft)
02.06.2023 23:30 11,0 C 9,4 C 76 % 1020,7 hPa 0,0 l/m 12,8 km/h (3 Bft) N-NO 19 0 min 0,0 UV-I 0 W/m 6,9 C 7,3 C 20,9 km/h (4 Bft)
02.06.2023 23:33 11,1 C 9,4 C 75 % 1020,7 hPa 0,0 l/m 13,9 km/h (3 Bft) N-NO 19 0 min 0,0 UV-I 0 W/m 6,8 C 6,9 C 19,3 km/h (3 Bft)
02.06.2023 23:36 11,1 C 9,4 C 75 % 1020,7 hPa 0,0 l/m 15,4 km/h (3 Bft) N-NO 26 0 min 0,0 UV-I 0 W/m 6,8 C 6,3 C 20,9 km/h (4 Bft)
02.06.2023 23:39 11,1 C 9,4 C 75 % 1020,7 hPa 0,0 l/m 13,9 km/h (3 Bft) N-NO 24 0 min 0,0 UV-I 0 W/m 6,8 C 6,9 C 22,5 km/h (4 Bft)
02.06.2023 23:42 11,1 C 9,4 C 75 % 1020,9 hPa 0,0 l/m 13,5 km/h (3 Bft) NO 36 0 min 0,0 UV-I 0 W/m 6,8 C 7,1 C 22,5 km/h (4 Bft)
02.06.2023 23:45 11,1 C 9,4 C 75 % 1020,8 hPa 0,0 l/m 14,4 km/h (3 Bft) N-NO 25 0 min 0,0 UV-I 0 W/m 6,8 C 6,7 C 22,5 km/h (4 Bft)
02.06.2023 23:48 11,1 C 9,4 C 75 % 1020,8 hPa 0,0 l/m 14,2 km/h (3 Bft) N-NO 19 0 min 0,0 UV-I 0 W/m 6,8 C 6,8 C 20,9 km/h (4 Bft)
02.06.2023 23:51 11,1 C 9,4 C 75 % 1020,7 hPa 0,0 l/m 13,6 km/h (3 Bft) NO 34 0 min 0,0 UV-I 0 W/m 6,8 C 7,1 C 27,4 km/h (4 Bft)
02.06.2023 23:54 10,9 C 9,4 C 75 % 1020,7 hPa 0,0 l/m 8,6 km/h (2 Bft) NO 38 0 min 0,0 UV-I 0 W/m 6,6 C 9,4 C 16,1 km/h (3 Bft)
02.06.2023 23:57 10,8 C 8,9 C 75 % 1020,8 hPa 0,0 l/m 8,0 km/h (2 Bft) N-NO 19 0 min 0,0 UV-I 0 W/m 6,5 C 9,7 C 20,9 km/h (4 Bft)
_ Min-Zeit 08:18 05:30 17:24 03:51 - 04:51 - - - - - 08:30 08:21 04:51
Minimum _ 7,3 C 7,8 C 60 % 1019,6 hPa - 4,4 km/h (1 Bft) - - - - - 4,5 C -1,3 C 8,0 km/h (2 Bft)
_ Max-Zeit 16:42 14:36 03:45 23:42 00:00 08:21 - - 16:07 13:30 13:42 15:06 16:42 09:06
Maximum _ 16,1 C 27,2 C 88 % 1020,9 hPa 0,0 l/m 23,1 km/h
N-NW (4 Bft)
- - 4 min 6,0 UV-I 880 W/m 9,2 C 15,0 C 32,2 km/h
N-NW (5 Bft)
Durchschnitt _ 11,5 C 14,5 C 75 % 1020,1 hPa #0,0 l/m 13,1 km/h (3 Bft) N - #10:45 h 3,5 UV-I 452 W/m 7,0 C 7,8 C 20,8 km/h (4 Bft)